EAG5530 RJGG-OBBI

Flight info

Callsign EAG5530
Flight time 11h 25m
Altitude 28000
Route ISE3 KOZA KEC ALUYO Z26 TONAR N0511F300 Y52 IGURU G581 HCN G86 KAPLI DCT IKELA K0943F320 A1 LENKO DCT TRABE N0509F320 DCT OKENA DCT CMP G473 BGO G472 PTN N895 BUBKO N0503F340 N895 AAE L639 RASKI L301 VAXIM N0497F360 L301 RAGMA N571 MENSA N0504F340 N571 IVOXI M557 TUMAK DCT ROTAG L768 ORDIG
Aircraft B77W/H-SDE1E2E3FGHIJ2J3J4J5M1RWXY/LB1D1

Departure

Time 2026-04-30 03:28
Airport Chubu Centrair International Airport (RJGG)

Arrival

Time 2026-04-30 14:53
Airport Bahrain International Airport (OBBI)
Time Latitude Longitude Altitude Speed Heading
2026-04-30 03:26 34.84505 136.80856 28 ft 10 kts 348°
2026-04-30 03:26 34.84507 136.80856 28 ft 0 kts 348°
2026-04-30 03:27 34.84517 136.80853 28 ft 8 kts 348°
2026-04-30 03:27 34.84747 136.80798 31 ft 71 kts 349°
2026-04-30 03:27 34.85495 136.80618 28 ft 147 kts 349°
2026-04-30 03:28 34.86717 136.80317 179 ft 196 kts 348°
2026-04-30 03:28 34.88007 136.79959 1185 ft 194 kts 340°
2026-04-30 03:28 34.89068 136.78855 1685 ft 212 kts 294°
2026-04-30 03:28 34.89293 136.77060 1842 ft 220 kts 252°
2026-04-30 03:29 34.88558 136.75465 1892 ft 219 kts 215°
2026-04-30 03:29 34.87311 136.74331 2058 ft 231 kts 208°
2026-04-30 03:29 34.85943 136.73234 2430 ft 241 kts 207°
2026-04-30 03:29 34.84516 136.72090 2785 ft 253 kts 206°
2026-04-30 03:30 34.82897 136.71310 3003 ft 249 kts 176°
2026-04-30 03:30 34.81187 136.71566 3377 ft 251 kts 164°
2026-04-30 03:30 34.79454 136.72000 3901 ft 256 kts 166°
2026-04-30 03:30 34.77701 136.72419 4575 ft 259 kts 166°
2026-04-30 03:31 34.75900 136.72687 5025 ft 267 kts 182°
2026-04-30 03:31 34.74075 136.72272 5419 ft 274 kts 191°
2026-04-30 03:31 34.72172 136.71759 5971 ft 279 kts 191°
2026-04-30 03:31 34.70292 136.71273 6606 ft 281 kts 193°
2026-04-30 03:32 34.68388 136.70739 7140 ft 281 kts 201°
2026-04-30 03:32 34.66666 136.69585 7560 ft 285 kts 216°
2026-04-30 03:32 34.65059 136.68176 8170 ft 285 kts 217°
2026-04-30 03:32 34.63451 136.66756 8824 ft 286 kts 217°
2026-04-30 03:33 34.61834 136.65329 9426 ft 288 kts 217°
2026-04-30 03:33 34.60201 136.63895 10029 ft 290 kts 217°
2026-04-30 03:33 34.58544 136.62448 10378 ft 301 kts 217°
2026-04-30 03:33 34.56788 136.60924 10515 ft 320 kts 217°
2026-04-30 03:34 34.54924 136.59312 10634 ft 338 kts 217°
2026-04-30 03:34 34.52957 136.57614 10912 ft 352 kts 217°
2026-04-30 03:34 34.50975 136.55834 11436 ft 355 kts 221°
2026-04-30 03:34 34.49068 136.53924 12051 ft 358 kts 223°
2026-04-30 03:35 34.47193 136.51999 12739 ft 358 kts 223°
2026-04-30 03:35 34.45260 136.50016 13409 ft 360 kts 224°
2026-04-30 03:35 34.43477 136.47942 13944 ft 361 kts 230°
2026-04-30 03:35 34.41811 136.45660 14492 ft 361 kts 232°
2026-04-30 03:36 34.40181 136.43337 15048 ft 364 kts 232°
2026-04-30 03:36 34.38547 136.40966 15468 ft 369 kts 233°
2026-04-30 03:36 34.36898 136.38562 15955 ft 373 kts 233°
2026-04-30 03:36 34.35240 136.36124 16495 ft 375 kts 233°
2026-04-30 03:37 34.33575 136.33688 16992 ft 377 kts 233°
2026-04-30 03:37 34.31896 136.31235 17446 ft 380 kts 233°
2026-04-30 03:37 34.30204 136.28765 17931 ft 382 kts 233°
2026-04-30 03:37 34.28496 136.26272 18401 ft 386 kts 233°
2026-04-30 03:38 34.26797 136.23791 18819 ft 389 kts 233°
2026-04-30 03:38 34.25066 136.21257 19188 ft 391 kts 233°
2026-04-30 03:38 34.23370 136.18693 19648 ft 389 kts 237°
2026-04-30 03:38 34.22019 136.15866 20106 ft 389 kts 247°
2026-04-30 03:39 34.21103 136.12799 20511 ft 391 kts 253°
2026-04-30 03:39 34.20399 136.09613 20934 ft 393 kts 256°
2026-04-30 03:39 34.19770 136.06392 21357 ft 394 kts 256°
2026-04-30 03:39 34.19173 136.03156 21802 ft 396 kts 257°
2026-04-30 03:40 34.18594 135.99930 22199 ft 398 kts 257°
2026-04-30 03:40 34.18021 135.96722 22534 ft 400 kts 257°
2026-04-30 03:40 34.17435 135.93422 22890 ft 402 kts 256°
2026-04-30 03:40 34.16798 135.90177 23224 ft 403 kts 253°
2026-04-30 03:41 34.15793 135.86995 23517 ft 407 kts 243°
2026-04-30 03:41 34.14333 135.84058 23777 ft 410 kts 237°
2026-04-30 03:41 34.12664 135.81271 24112 ft 410 kts 234°
2026-04-30 03:41 34.10925 135.78554 24504 ft 409 kts 233°
2026-04-30 03:42 34.09170 135.75853 24815 ft 410 kts 233°
2026-04-30 03:42 34.07396 135.73138 25058 ft 413 kts 233°
2026-04-30 03:42 34.05604 135.70407 25305 ft 416 kts 233°
2026-04-30 03:42 34.03803 135.67667 25629 ft 417 kts 233°
2026-04-30 03:43 34.01998 135.64922 25951 ft 417 kts 233°
2026-04-30 03:43 34.00187 135.62174 26168 ft 419 kts 233°
2026-04-30 03:43 33.98372 135.59418 26436 ft 421 kts 233°
2026-04-30 03:43 33.96572 135.56689 26722 ft 422 kts 233°
2026-04-30 03:44 33.94720 135.53869 26983 ft 424 kts 233°
2026-04-30 03:44 33.92910 135.51116 27205 ft 426 kts 233°
2026-04-30 03:44 33.91061 135.48311 27466 ft 428 kts 233°
2026-04-30 03:44 33.89194 135.45521 27731 ft 430 kts 230°
2026-04-30 03:45 33.87036 135.43007 27966 ft 434 kts 221°
2026-04-30 03:45 33.84516 135.40946 28040 ft 443 kts 212°
2026-04-30 03:45 33.78708 135.38233 28090 ft 457 kts 200°
2026-04-30 03:46 33.72422 135.36559 28105 ft 467 kts 197°
2026-04-30 03:46 33.66004 135.35046 28106 ft 472 kts 196°
2026-04-30 03:47 33.59566 135.33558 28104 ft 471 kts 196°
2026-04-30 03:47 33.53141 135.32079 28092 ft 470 kts 196°
2026-04-30 03:48 33.46710 135.30589 28094 ft 471 kts 196°
2026-04-30 03:48 33.40272 135.29092 28093 ft 471 kts 196°
2026-04-30 03:49 33.33814 135.27582 28071 ft 472 kts 196°
2026-04-30 03:49 33.27360 135.26044 28082 ft 474 kts 196°
2026-04-30 03:50 33.20885 135.24484 28085 ft 475 kts 196°
2026-04-30 03:50 33.14435 135.22922 28059 ft 476 kts 196°
2026-04-30 03:51 33.07934 135.21329 28072 ft 477 kts 196°
2026-04-30 03:51 33.01399 135.20074 28066 ft 467 kts 197°
2026-04-30 03:52 32.94864 135.19181 28079 ft 480 kts 188°
2026-04-30 03:52 32.88150 135.18908 28060 ft 484 kts 187°
2026-04-30 03:53 32.81398 135.18731 28063 ft 485 kts 186°
2026-04-30 03:53 32.74664 135.18574 28046 ft 484 kts 187°
2026-04-30 03:54 32.68066 135.17572 28071 ft 474 kts 198°
2026-04-30 03:54 32.61681 135.15644 28054 ft 473 kts 200°
2026-04-30 03:55 32.55340 135.13584 28047 ft 473 kts 200°
2026-04-30 03:55 32.49011 135.11504 28051 ft 474 kts 200°
2026-04-30 03:56 32.42662 135.09410 28047 ft 474 kts 200°
2026-04-30 03:56 32.36310 135.07309 28043 ft 474 kts 200°
2026-04-30 03:57 32.30042 135.04922 28028 ft 471 kts 204°
2026-04-30 03:57 32.23917 135.02203 28038 ft 470 kts 205°
2026-04-30 03:58 32.18044 134.99190 28050 ft 465 kts 211°
2026-04-30 03:58 32.12406 134.95477 28034 ft 464 kts 215°
2026-04-30 03:59 32.07107 134.91177 28036 ft 462 kts 219°
2026-04-30 03:59 32.02001 134.86601 28034 ft 461 kts 221°
2026-04-30 04:00 31.97078 134.81782 28016 ft 461 kts 223°
2026-04-30 04:00 31.93088 134.77608 28135 ft 462 kts 224°
2026-04-30 04:01 31.90702 134.75080 28379 ft 460 kts 224°
2026-04-30 04:01 31.87544 134.71707 28815 ft 456 kts 226°
2026-04-30 04:01 31.86091 134.69926 29012 ft 453 kts 231°
2026-04-30 04:01 31.84154 134.67014 29289 ft 451 kts 235°
2026-04-30 04:02 31.82360 134.63996 29549 ft 450 kts 237°
2026-04-30 04:02 31.80601 134.60969 29809 ft 449 kts 235°
2026-04-30 04:02 31.78712 134.58051 29965 ft 448 kts 233°
2026-04-30 04:02 31.76745 134.55209 30000 ft 448 kts 232°
2026-04-30 04:03 31.72764 134.49586 29992 ft 447 kts 232°
2026-04-30 04:03 31.68830 134.43968 29996 ft 448 kts 232°
2026-04-30 04:04 31.64900 134.38287 29991 ft 449 kts 232°
2026-04-30 04:04 31.60974 134.32589 29982 ft 449 kts 232°
2026-04-30 04:05 31.57040 134.26886 29979 ft 450 kts 232°
2026-04-30 04:05 31.53100 134.21183 29979 ft 451 kts 232°
2026-04-30 04:06 31.49131 134.15449 29973 ft 453 kts 232°
2026-04-30 04:06 31.45156 134.09715 29960 ft 454 kts 232°
2026-04-30 04:07 31.41169 134.03974 29956 ft 455 kts 232°
2026-04-30 04:08 31.35247 133.95461 29935 ft 456 kts 232°
2026-04-30 04:08 31.31240 133.89712 29944 ft 455 kts 232°
2026-04-30 04:09 31.27245 133.83989 29928 ft 454 kts 232°
2026-04-30 04:09 31.23268 133.78299 29904 ft 451 kts 232°
2026-04-30 04:10 31.19301 133.72631 29927 ft 449 kts 232°
2026-04-30 04:10 31.15343 133.66985 29919 ft 449 kts 232°
2026-04-30 04:11 31.11402 133.61372 29927 ft 450 kts 232°
2026-04-30 04:11 31.07428 133.55719 29930 ft 452 kts 232°
2026-04-30 04:12 31.03422 133.50029 29928 ft 455 kts 232°
2026-04-30 04:12 30.99401 133.44327 29899 ft 457 kts 232°
2026-04-30 04:13 30.95361 133.38606 29905 ft 457 kts 231°
2026-04-30 04:13 30.91316 133.32886 29906 ft 457 kts 231°
2026-04-30 04:14 30.87269 133.27173 29908 ft 457 kts 231°
2026-04-30 04:14 30.83210 133.21450 29900 ft 457 kts 231°
2026-04-30 04:15 30.79160 133.15747 29903 ft 458 kts 231°
2026-04-30 04:15 30.75116 133.10063 29894 ft 459 kts 231°
2026-04-30 04:16 30.71045 133.04349 29876 ft 460 kts 231°
2026-04-30 04:16 30.67026 132.98716 29897 ft 460 kts 231°
2026-04-30 04:17 30.62940 132.92996 29893 ft 460 kts 231°
2026-04-30 04:17 30.58842 132.87270 29876 ft 460 kts 231°
2026-04-30 04:18 30.54755 132.81566 29895 ft 459 kts 231°
2026-04-30 04:18 30.50674 132.75879 29889 ft 458 kts 231°
2026-04-30 04:19 30.46591 132.70196 29896 ft 458 kts 231°
2026-04-30 04:19 30.42515 132.64534 29888 ft 458 kts 231°
2026-04-30 04:20 30.38430 132.58864 29898 ft 458 kts 231°
2026-04-30 04:20 30.34334 132.53189 29895 ft 459 kts 231°
2026-04-30 04:21 30.30261 132.47555 29881 ft 459 kts 231°
2026-04-30 04:21 30.26162 132.41891 29889 ft 459 kts 231°
2026-04-30 04:22 30.22060 132.36231 29890 ft 459 kts 231°
2026-04-30 04:22 30.17953 132.30572 29868 ft 459 kts 231°
2026-04-30 04:23 30.13852 132.24931 29884 ft 459 kts 231°
2026-04-30 04:23 30.09745 132.19289 29902 ft 459 kts 231°
2026-04-30 04:24 30.05661 132.13685 29892 ft 459 kts 231°
2026-04-30 04:24 30.01550 132.08053 29884 ft 459 kts 232°
2026-04-30 04:25 29.97429 132.02416 29890 ft 459 kts 231°
2026-04-30 04:25 29.93377 131.96880 29906 ft 459 kts 231°
2026-04-30 04:26 29.89280 131.91289 29875 ft 458 kts 231°
2026-04-30 04:26 29.85143 131.85650 29890 ft 458 kts 231°
2026-04-30 04:27 29.81088 131.79993 29888 ft 457 kts 236°
2026-04-30 04:27 29.77482 131.73980 29905 ft 456 kts 236°
2026-04-30 04:28 29.73906 131.68001 29886 ft 456 kts 236°
2026-04-30 04:28 29.70292 131.61993 29892 ft 457 kts 236°
2026-04-30 04:29 29.66663 131.55982 29893 ft 457 kts 236°
2026-04-30 04:29 29.63034 131.49980 29882 ft 457 kts 236°
2026-04-30 04:30 29.59406 131.43991 29891 ft 456 kts 236°
2026-04-30 04:30 29.55773 131.37999 29892 ft 456 kts 236°
2026-04-30 04:31 29.52144 131.32023 29900 ft 456 kts 236°
2026-04-30 04:31 29.48541 131.26099 29874 ft 456 kts 236°
2026-04-30 04:32 29.44905 131.20129 29885 ft 456 kts 236°
2026-04-30 04:32 29.41262 131.14157 29887 ft 457 kts 236°
2026-04-30 04:33 29.37614 131.08183 29891 ft 457 kts 236°
2026-04-30 04:33 29.33963 131.02215 29883 ft 456 kts 236°
2026-04-30 04:34 29.30375 130.96358 29888 ft 456 kts 236°
2026-04-30 04:34 29.26726 130.90410 29918 ft 455 kts 236°
2026-04-30 04:35 29.23127 130.84552 29901 ft 450 kts 236°
2026-04-30 04:35 29.19531 130.78708 29894 ft 446 kts 236°
2026-04-30 04:36 29.15972 130.72931 29887 ft 443 kts 236°
2026-04-30 04:36 29.12423 130.67177 29890 ft 442 kts 236°
2026-04-30 04:37 29.08868 130.61422 29880 ft 444 kts 236°
2026-04-30 04:37 29.05295 130.55645 29889 ft 446 kts 236°
2026-04-30 04:38 29.01718 130.49870 29898 ft 449 kts 236°
2026-04-30 04:38 28.98104 130.44045 29906 ft 450 kts 236°
2026-04-30 04:39 28.94477 130.38207 29884 ft 450 kts 236°
2026-04-30 04:39 28.90858 130.32389 29892 ft 449 kts 236°
2026-04-30 04:40 28.87243 130.26586 29896 ft 449 kts 236°
2026-04-30 04:40 28.83631 130.20796 29907 ft 447 kts 236°
2026-04-30 04:41 28.80057 130.15074 29885 ft 445 kts 236°
2026-04-30 04:41 28.76470 130.09339 29894 ft 445 kts 236°
2026-04-30 04:42 28.72879 130.03604 29932 ft 445 kts 236°
2026-04-30 04:42 28.69325 129.97937 29910 ft 446 kts 236°
2026-04-30 04:43 28.65721 129.92198 29902 ft 445 kts 236°
2026-04-30 04:43 28.62115 129.86465 29912 ft 445 kts 236°
2026-04-30 04:44 28.58505 129.80732 29910 ft 446 kts 236°
2026-04-30 04:44 28.54914 129.75037 29922 ft 446 kts 236°
2026-04-30 04:45 28.51298 129.69309 29893 ft 445 kts 236°
2026-04-30 04:45 28.47684 129.63590 29904 ft 446 kts 236°
2026-04-30 04:46 28.44025 129.57892 29921 ft 447 kts 233°
2026-04-30 04:46 28.39952 129.52510 29906 ft 450 kts 231°
2026-04-30 04:47 28.35847 129.47156 29895 ft 449 kts 231°
2026-04-30 04:47 28.31740 129.41792 29897 ft 451 kts 231°
2026-04-30 04:48 28.27654 129.36445 29907 ft 452 kts 231°
2026-04-30 04:48 28.23540 129.31063 29910 ft 451 kts 231°
2026-04-30 04:49 28.19441 129.25716 29931 ft 446 kts 231°
2026-04-30 04:49 28.15378 129.20423 29947 ft 444 kts 232°
2026-04-30 04:50 28.11319 129.15133 29942 ft 444 kts 231°
2026-04-30 04:50 28.07940 129.10738 29960 ft 445 kts 231°
2026-04-30 04:51 28.03203 129.04584 29937 ft 446 kts 231°
2026-04-30 04:51 27.99812 129.00183 29942 ft 447 kts 231°
2026-04-30 04:52 27.95777 128.94946 29915 ft 450 kts 231°
2026-04-30 04:52 27.91652 128.89605 29910 ft 451 kts 231°
2026-04-30 04:53 27.87530 128.84279 29935 ft 449 kts 231°
2026-04-30 04:53 27.83413 128.78968 29940 ft 449 kts 231°
2026-04-30 04:54 27.79300 128.73665 29956 ft 449 kts 231°
2026-04-30 04:54 27.75171 128.68345 29954 ft 450 kts 231°
2026-04-30 04:55 27.71042 128.63035 29959 ft 449 kts 231°
2026-04-30 04:55 27.66919 128.57737 29934 ft 449 kts 231°
2026-04-30 04:56 27.62797 128.52448 29937 ft 448 kts 231°
2026-04-30 04:56 27.58716 128.47217 29957 ft 447 kts 231°
2026-04-30 04:57 27.54588 128.41933 29951 ft 451 kts 231°
2026-04-30 04:57 27.50426 128.36610 29958 ft 452 kts 231°
2026-04-30 04:58 27.46266 128.31299 29961 ft 451 kts 231°
2026-04-30 04:58 27.42111 128.26001 29952 ft 451 kts 231°
2026-04-30 04:59 27.37965 128.20720 29939 ft 451 kts 231°
2026-04-30 04:59 27.33808 128.15432 29961 ft 451 kts 231°
2026-04-30 05:00 27.29639 128.10133 29959 ft 452 kts 231°
2026-04-30 05:00 27.25494 128.04873 29959 ft 453 kts 231°
2026-04-30 05:01 27.21379 127.99659 29952 ft 453 kts 231°
2026-04-30 05:01 27.17193 127.94358 29974 ft 454 kts 231°
2026-04-30 05:02 27.12997 127.89054 29965 ft 454 kts 231°
2026-04-30 05:02 27.08802 127.83755 29964 ft 454 kts 231°
2026-04-30 05:03 27.04604 127.78461 29951 ft 454 kts 231°
2026-04-30 05:03 27.00408 127.73174 29968 ft 454 kts 231°
2026-04-30 05:04 26.96234 127.67922 29977 ft 454 kts 231°
2026-04-30 05:04 26.92027 127.62635 29971 ft 454 kts 231°
2026-04-30 05:05 26.87816 127.57351 29959 ft 455 kts 231°
2026-04-30 05:05 26.83600 127.52064 29973 ft 455 kts 231°
2026-04-30 05:06 26.77265 127.44133 29972 ft 455 kts 231°
2026-04-30 05:06 26.73044 127.38858 29963 ft 454 kts 231°
2026-04-30 05:07 26.68828 127.33596 29971 ft 454 kts 231°
2026-04-30 05:07 26.64605 127.28328 29971 ft 456 kts 231°
2026-04-30 05:08 26.60387 127.23075 29988 ft 457 kts 230°
2026-04-30 05:08 26.56134 127.17784 29998 ft 459 kts 230°
2026-04-30 05:09 26.51855 127.12468 29955 ft 460 kts 230°
2026-04-30 05:09 26.47586 127.07172 29973 ft 458 kts 230°
2026-04-30 05:10 26.43321 127.01886 29974 ft 457 kts 230°
2026-04-30 05:10 26.39138 126.96707 29987 ft 456 kts 230°
2026-04-30 05:11 26.34889 126.91454 29961 ft 456 kts 230°
2026-04-30 05:11 26.30639 126.86204 29979 ft 457 kts 230°
2026-04-30 05:12 26.26397 126.80971 29982 ft 458 kts 230°
2026-04-30 05:12 26.22122 126.75702 29982 ft 459 kts 230°
2026-04-30 05:13 26.17828 126.70418 29967 ft 460 kts 230°
2026-04-30 05:13 26.13530 126.65135 29984 ft 461 kts 230°
2026-04-30 05:14 26.09225 126.59850 29980 ft 461 kts 230°
2026-04-30 05:14 26.04912 126.54561 29987 ft 461 kts 230°
2026-04-30 05:15 26.00594 126.49272 30000 ft 461 kts 230°
2026-04-30 05:15 25.96289 126.44005 29986 ft 461 kts 230°
2026-04-30 05:16 25.91986 126.38747 29987 ft 460 kts 230°
2026-04-30 05:16 25.87716 126.33535 29990 ft 459 kts 230°
2026-04-30 05:17 25.83416 126.28293 29986 ft 459 kts 230°
2026-04-30 05:17 25.79124 126.23066 29991 ft 458 kts 230°
2026-04-30 05:18 25.74826 126.17838 29993 ft 459 kts 230°
2026-04-30 05:18 25.70521 126.12608 29989 ft 459 kts 230°
2026-04-30 05:19 25.66218 126.07386 29987 ft 459 kts 230°
2026-04-30 05:19 25.61894 126.02144 29965 ft 461 kts 230°
2026-04-30 05:20 25.57630 125.96981 29986 ft 462 kts 230°
2026-04-30 05:20 25.53283 125.91724 29991 ft 463 kts 230°
2026-04-30 05:21 25.48959 125.86501 29992 ft 463 kts 230°
2026-04-30 05:21 25.44597 125.81237 29997 ft 464 kts 230°
2026-04-30 05:22 25.40227 125.75971 29992 ft 464 kts 230°
2026-04-30 05:22 25.35857 125.70709 29999 ft 464 kts 230°
2026-04-30 05:23 25.31478 125.65442 29992 ft 464 kts 230°
2026-04-30 05:23 25.27105 125.60188 29997 ft 464 kts 230°
2026-04-30 05:24 25.22798 125.54943 29989 ft 463 kts 230°
2026-04-30 05:24 25.18502 125.49634 30002 ft 464 kts 230°
2026-04-30 05:25 25.14200 125.44323 29994 ft 464 kts 230°
2026-04-30 05:25 25.09887 125.39017 29992 ft 464 kts 230°
2026-04-30 05:26 25.05576 125.33726 29976 ft 465 kts 230°
2026-04-30 05:26 25.01245 125.28417 29993 ft 466 kts 230°
2026-04-30 05:27 24.96905 125.23102 29993 ft 468 kts 230°
2026-04-30 05:27 24.92538 125.17762 29954 ft 469 kts 230°
2026-04-30 05:28 24.88177 125.12434 29960 ft 466 kts 230°
2026-04-30 05:28 24.83848 125.07152 29960 ft 463 kts 230°
2026-04-30 05:29 24.79533 125.01891 29975 ft 463 kts 230°
2026-04-30 05:29 24.75313 124.96752 29982 ft 464 kts 230°
2026-04-30 05:30 24.70980 124.91482 29985 ft 465 kts 230°
2026-04-30 05:30 24.66639 124.86207 29966 ft 466 kts 230°
2026-04-30 05:31 24.62283 124.80921 29996 ft 467 kts 230°
2026-04-30 05:31 24.57917 124.75629 29993 ft 468 kts 230°
2026-04-30 05:32 24.53534 124.70322 29997 ft 469 kts 230°
2026-04-30 05:32 24.49150 124.65020 29992 ft 469 kts 230°
2026-04-30 05:33 24.44759 124.59715 29981 ft 469 kts 229°
2026-04-30 05:33 24.40399 124.54453 29982 ft 469 kts 229°
2026-04-30 05:34 24.36007 124.49159 29982 ft 469 kts 229°
2026-04-30 05:34 24.31611 124.43866 29987 ft 470 kts 229°
2026-04-30 05:35 24.27209 124.38571 29967 ft 470 kts 229°
2026-04-30 05:35 24.22796 124.33269 29965 ft 470 kts 229°
2026-04-30 05:36 24.18389 124.27980 29974 ft 470 kts 229°
2026-04-30 05:36 24.13979 124.22693 29975 ft 469 kts 229°
2026-04-30 05:37 24.09575 124.17419 29978 ft 469 kts 229°
2026-04-30 05:37 24.05194 124.12177 29977 ft 469 kts 229°
2026-04-30 05:38 24.00785 124.06907 29979 ft 470 kts 229°
2026-04-30 05:38 23.96376 124.01640 29979 ft 470 kts 230°
2026-04-30 05:39 23.92482 123.96079 29985 ft 468 kts 237°
2026-04-30 05:39 23.88859 123.90171 29981 ft 468 kts 237°
2026-04-30 05:40 23.85214 123.84276 29976 ft 468 kts 237°
2026-04-30 05:40 23.81554 123.78394 29988 ft 468 kts 237°
2026-04-30 05:41 23.77899 123.72538 29980 ft 469 kts 237°
2026-04-30 05:41 23.74222 123.66654 29994 ft 469 kts 237°
2026-04-30 05:42 23.70549 123.60779 29976 ft 469 kts 237°
2026-04-30 05:42 23.66880 123.54918 29971 ft 468 kts 237°
2026-04-30 05:43 23.63815 123.50027 29976 ft 467 kts 237°
2026-04-30 05:43 23.59553 123.43233 29977 ft 467 kts 237°
2026-04-30 05:44 23.56479 123.38340 29978 ft 467 kts 237°
2026-04-30 05:44 23.52808 123.32501 29980 ft 467 kts 237°
2026-04-30 05:45 23.49132 123.26661 29969 ft 467 kts 237°
2026-04-30 05:45 23.45452 123.20822 29977 ft 467 kts 237°
2026-04-30 05:46 23.41791 123.15019 29980 ft 467 kts 237°
2026-04-30 05:46 23.38111 123.09191 29973 ft 468 kts 237°
2026-04-30 05:47 23.34425 123.03360 29980 ft 468 kts 237°
2026-04-30 05:47 23.30795 122.97628 29976 ft 468 kts 237°
2026-04-30 05:48 23.27097 122.91804 29988 ft 468 kts 237°
2026-04-30 05:48 23.23399 122.85986 29963 ft 468 kts 237°
2026-04-30 05:49 23.19692 122.80157 29964 ft 468 kts 237°
2026-04-30 05:49 23.15986 122.74337 29967 ft 469 kts 237°
2026-04-30 05:50 23.12299 122.68551 29972 ft 469 kts 237°
2026-04-30 05:50 23.08584 122.62729 29980 ft 469 kts 237°
2026-04-30 05:51 23.04869 122.56912 29983 ft 469 kts 237°
2026-04-30 05:51 23.01148 122.51094 29959 ft 469 kts 237°
2026-04-30 05:52 22.97425 122.45279 29985 ft 470 kts 237°
2026-04-30 05:52 22.93691 122.39453 29984 ft 470 kts 237°
2026-04-30 05:53 22.89959 122.33636 29965 ft 470 kts 237°
2026-04-30 05:53 22.86225 122.27823 29977 ft 470 kts 237°
2026-04-30 05:54 22.82489 122.22014 29974 ft 469 kts 237°
2026-04-30 05:54 22.78750 122.16206 29974 ft 469 kts 237°
2026-04-30 05:55 22.75033 122.10438 29977 ft 469 kts 237°
2026-04-30 05:55 22.71295 122.04646 29980 ft 469 kts 237°
2026-04-30 05:56 22.67612 121.98944 29976 ft 469 kts 237°
2026-04-30 05:56 22.63867 121.93153 29968 ft 469 kts 237°
2026-04-30 05:57 22.60124 121.87370 29970 ft 469 kts 237°
2026-04-30 05:57 22.56369 121.81576 29961 ft 469 kts 237°
2026-04-30 05:58 22.52646 121.75837 29960 ft 469 kts 236°
2026-04-30 05:58 22.48900 121.70069 29934 ft 469 kts 237°
2026-04-30 05:59 22.45144 121.64292 29950 ft 469 kts 237°
2026-04-30 05:59 22.41392 121.58528 29948 ft 469 kts 237°
2026-04-30 06:00 22.37636 121.52764 29952 ft 469 kts 237°
2026-04-30 06:00 22.33873 121.46993 29952 ft 469 kts 236°
2026-04-30 06:01 22.30112 121.41235 29951 ft 470 kts 236°
2026-04-30 06:01 22.26344 121.35470 29940 ft 470 kts 236°
2026-04-30 06:02 22.22567 121.29697 29952 ft 471 kts 236°
2026-04-30 06:02 22.18783 121.23921 29966 ft 472 kts 236°
2026-04-30 06:03 22.14984 121.18128 29968 ft 474 kts 236°
2026-04-30 06:03 22.11174 121.12324 29965 ft 475 kts 236°
2026-04-30 06:04 22.07343 121.06493 29971 ft 476 kts 236°
2026-04-30 06:05 22.01654 120.97847 29954 ft 476 kts 236°
2026-04-30 06:05 21.97827 120.92030 29969 ft 476 kts 236°
2026-04-30 06:06 21.94264 120.86087 29959 ft 475 kts 244°
2026-04-30 06:06 21.91744 120.79530 29966 ft 474 kts 253°
2026-04-30 06:07 21.90159 120.72637 29968 ft 473 kts 257°
2026-04-30 06:07 21.88709 120.65728 29967 ft 474 kts 257°
2026-04-30 06:08 21.87230 120.58817 29960 ft 473 kts 256°
2026-04-30 06:08 21.85730 120.51935 29966 ft 472 kts 256°
2026-04-30 06:09 21.84223 120.45067 29958 ft 471 kts 256°
2026-04-30 06:09 21.82728 120.38257 29973 ft 470 kts 256°
2026-04-30 06:10 21.81219 120.31397 29960 ft 471 kts 256°
2026-04-30 06:10 21.79707 120.24531 29961 ft 472 kts 256°
2026-04-30 06:11 21.78187 120.17649 29956 ft 473 kts 256°
2026-04-30 06:11 21.76662 120.10755 29971 ft 474 kts 256°
2026-04-30 06:12 21.75132 120.03851 29961 ft 474 kts 256°
2026-04-30 06:12 21.73625 119.97066 29960 ft 474 kts 256°
2026-04-30 06:13 21.72093 119.90180 29958 ft 473 kts 256°
2026-04-30 06:13 21.70564 119.83323 29949 ft 470 kts 256°
2026-04-30 06:14 21.69046 119.76525 29945 ft 469 kts 256°
2026-04-30 06:14 21.67520 119.69704 29958 ft 469 kts 256°
2026-04-30 06:15 21.65993 119.62895 29958 ft 469 kts 256°
2026-04-30 06:15 21.64458 119.56058 29959 ft 470 kts 256°
2026-04-30 06:16 21.62919 119.49221 29962 ft 471 kts 256°
2026-04-30 06:16 21.61374 119.42371 29962 ft 472 kts 256°
2026-04-30 06:17 21.59823 119.35509 29960 ft 473 kts 256°
2026-04-30 06:17 21.58269 119.28645 29960 ft 473 kts 256°
2026-04-30 06:18 21.56711 119.21785 29967 ft 472 kts 256°
2026-04-30 06:18 21.55158 119.14950 29956 ft 470 kts 256°
2026-04-30 06:19 21.53606 119.08136 29962 ft 469 kts 256°
2026-04-30 06:19 21.52065 119.01387 29962 ft 468 kts 256°
2026-04-30 06:20 21.50538 118.94714 29969 ft 468 kts 256°
2026-04-30 06:20 21.48983 118.87924 29961 ft 469 kts 255°
2026-04-30 06:21 21.47417 118.81108 29970 ft 471 kts 255°
2026-04-30 06:21 21.45844 118.74271 29964 ft 472 kts 255°
2026-04-30 06:22 21.44266 118.67427 29966 ft 473 kts 255°
2026-04-30 06:22 21.42679 118.60555 29963 ft 474 kts 255°
2026-04-30 06:23 21.41088 118.53681 29964 ft 474 kts 256°
2026-04-30 06:23 21.39499 118.46826 29967 ft 473 kts 256°
2026-04-30 06:24 21.37911 118.39988 29964 ft 471 kts 255°
2026-04-30 06:24 21.36321 118.33170 29962 ft 471 kts 255°
2026-04-30 06:25 21.34738 118.26391 29967 ft 472 kts 255°
2026-04-30 06:25 21.33135 118.19539 29972 ft 474 kts 255°
2026-04-30 06:26 21.31528 118.12682 29958 ft 475 kts 255°
2026-04-30 06:26 21.29915 118.05809 29973 ft 476 kts 256°
2026-04-30 06:27 21.28320 117.99027 29965 ft 477 kts 256°
2026-04-30 06:27 21.26691 117.92114 29974 ft 478 kts 256°
2026-04-30 06:28 21.25057 117.85193 29957 ft 479 kts 255°
2026-04-30 06:28 21.23425 117.78294 29962 ft 477 kts 255°
2026-04-30 06:29 21.21793 117.71411 29967 ft 475 kts 255°
2026-04-30 06:29 21.20177 117.64604 29967 ft 474 kts 255°
2026-04-30 06:30 21.18554 117.57777 29971 ft 473 kts 255°
2026-04-30 06:30 21.16848 117.50976 29973 ft 472 kts 251°
2026-04-30 06:31 21.14282 117.44507 29978 ft 473 kts 244°
2026-04-30 06:31 21.11349 117.38174 29982 ft 477 kts 244°
2026-04-30 06:32 21.08882 117.32817 29975 ft 479 kts 244°
2026-04-30 06:32 21.05963 117.26440 29967 ft 480 kts 245°
2026-04-30 06:33 21.03062 117.20085 29964 ft 472 kts 245°
2026-04-30 06:33 21.00173 117.13763 29970 ft 474 kts 245°
2026-04-30 06:34 20.97264 117.07403 29973 ft 477 kts 245°
2026-04-30 06:34 20.94334 117.01007 29976 ft 480 kts 245°
2026-04-30 06:35 20.91433 116.94684 29977 ft 482 kts 245°
2026-04-30 06:35 20.88478 116.88251 29973 ft 482 kts 245°
2026-04-30 06:36 20.85535 116.81852 29970 ft 482 kts 245°
2026-04-30 06:36 20.82573 116.75418 29965 ft 481 kts 245°
2026-04-30 06:37 20.79619 116.69011 29975 ft 480 kts 245°
2026-04-30 06:37 20.76669 116.62619 29975 ft 479 kts 245°
2026-04-30 06:38 20.73721 116.56238 29976 ft 479 kts 245°
2026-04-30 06:38 20.70786 116.49895 29977 ft 479 kts 245°
2026-04-30 06:39 20.67832 116.43517 29983 ft 479 kts 245°
2026-04-30 06:39 20.64876 116.37141 29977 ft 480 kts 245°
2026-04-30 06:40 20.61910 116.30753 29968 ft 480 kts 245°
2026-04-30 06:40 20.58943 116.24369 29980 ft 480 kts 244°
2026-04-30 06:41 20.55969 116.17980 29971 ft 481 kts 244°
2026-04-30 06:41 20.52988 116.11582 29979 ft 481 kts 244°
2026-04-30 06:42 20.50006 116.05188 29982 ft 481 kts 244°
2026-04-30 06:42 20.47086 115.98935 29976 ft 482 kts 244°
2026-04-30 06:43 20.44097 115.92542 29977 ft 481 kts 244°
2026-04-30 06:43 20.41106 115.86153 29973 ft 481 kts 244°
2026-04-30 06:44 20.38123 115.79787 29968 ft 480 kts 244°
2026-04-30 06:44 20.35136 115.73420 29977 ft 480 kts 244°
2026-04-30 06:45 20.32143 115.67048 29976 ft 480 kts 244°
2026-04-30 06:45 20.29170 115.60727 29976 ft 480 kts 244°
2026-04-30 06:46 20.26175 115.54366 29980 ft 480 kts 244°
2026-04-30 06:46 20.23172 115.47994 29976 ft 480 kts 244°
2026-04-30 06:47 20.20173 115.41639 29975 ft 480 kts 244°
2026-04-30 06:47 20.17172 115.35288 29979 ft 480 kts 244°
2026-04-30 06:48 20.14171 115.28943 29985 ft 479 kts 244°
2026-04-30 06:48 20.11194 115.22655 29976 ft 479 kts 244°
2026-04-30 06:49 20.08200 115.16339 29974 ft 478 kts 244°
2026-04-30 06:49 20.05208 115.10035 29973 ft 477 kts 244°
2026-04-30 06:50 20.02217 115.03739 29978 ft 477 kts 244°
2026-04-30 06:50 19.99277 114.97558 29982 ft 477 kts 244°
2026-04-30 06:51 19.96277 114.91259 29980 ft 477 kts 244°
2026-04-30 06:51 19.93277 114.84965 29970 ft 477 kts 244°
2026-04-30 06:52 19.90273 114.78670 29982 ft 478 kts 244°
2026-04-30 06:52 19.87264 114.72373 29978 ft 478 kts 244°
2026-04-30 06:53 19.84251 114.66073 29970 ft 478 kts 244°
2026-04-30 06:53 19.81252 114.59810 29976 ft 478 kts 244°
2026-04-30 06:54 19.78233 114.53513 29979 ft 478 kts 244°
2026-04-30 06:54 19.75215 114.47224 29975 ft 479 kts 244°
2026-04-30 06:55 19.72189 114.40924 29980 ft 478 kts 244°
2026-04-30 06:55 19.69161 114.34629 29977 ft 478 kts 244°
2026-04-30 06:56 19.66137 114.28348 29979 ft 478 kts 244°
2026-04-30 06:56 19.63112 114.22072 29977 ft 478 kts 244°
2026-04-30 06:57 19.60085 114.15800 29976 ft 478 kts 244°
2026-04-30 06:57 19.57073 114.09564 29977 ft 478 kts 244°
2026-04-30 06:58 19.54041 114.03296 29976 ft 478 kts 244°
2026-04-30 06:58 19.51056 113.97130 29976 ft 478 kts 244°
2026-04-30 06:59 19.48014 113.90852 29976 ft 478 kts 244°
2026-04-30 06:59 19.44967 113.84573 29970 ft 479 kts 244°
2026-04-30 07:00 19.41921 113.78302 29974 ft 479 kts 244°
2026-04-30 07:00 19.38876 113.72039 29984 ft 479 kts 244°
2026-04-30 07:01 19.35844 113.65809 29977 ft 479 kts 244°
2026-04-30 07:01 19.32787 113.59536 29979 ft 479 kts 244°
2026-04-30 07:02 19.29727 113.53263 29979 ft 479 kts 244°
2026-04-30 07:02 19.26664 113.46991 29975 ft 480 kts 244°
2026-04-30 07:03 19.23600 113.40721 29975 ft 480 kts 243°
2026-04-30 07:03 19.20530 113.34449 29977 ft 479 kts 243°
2026-04-30 07:04 19.17465 113.28193 29972 ft 479 kts 243°
2026-04-30 07:04 19.14398 113.21937 29977 ft 478 kts 243°
2026-04-30 07:05 19.09796 113.12567 29976 ft 478 kts 243°
2026-04-30 07:05 19.06728 113.06327 29979 ft 478 kts 243°
2026-04-30 07:06 19.03678 113.00131 29976 ft 478 kts 243°
2026-04-30 07:06 19.00654 112.93992 29978 ft 478 kts 243°
2026-04-30 07:07 18.97578 112.87758 29964 ft 478 kts 243°
2026-04-30 07:07 18.94502 112.81528 29973 ft 478 kts 243°
2026-04-30 07:08 18.91421 112.75295 29973 ft 478 kts 243°
2026-04-30 07:08 18.88339 112.69065 29977 ft 478 kts 243°
2026-04-30 07:09 18.85258 112.62844 29975 ft 478 kts 243°
2026-04-30 07:09 18.82174 112.56624 29974 ft 478 kts 243°
2026-04-30 07:10 18.79110 112.50449 29974 ft 478 kts 243°
2026-04-30 07:10 18.76022 112.44235 29972 ft 478 kts 243°
2026-04-30 07:11 18.72931 112.38017 29972 ft 479 kts 243°
2026-04-30 07:11 18.69834 112.31794 29973 ft 479 kts 243°
2026-04-30 07:12 18.66730 112.25572 29969 ft 480 kts 243°
2026-04-30 07:12 18.63180 112.19597 29978 ft 481 kts 237°
2026-04-30 07:13 18.59432 112.13740 29968 ft 482 kts 237°
2026-04-30 07:13 18.55686 112.07866 29985 ft 482 kts 237°
2026-04-30 07:14 18.51954 112.01982 29973 ft 483 kts 238°
2026-04-30 07:14 18.48304 111.96218 29974 ft 483 kts 238°
2026-04-30 07:15 18.44573 111.90331 29968 ft 483 kts 237°
2026-04-30 07:15 18.40838 111.84447 29965 ft 483 kts 237°
2026-04-30 07:16 18.37097 111.78558 29968 ft 483 kts 238°
2026-04-30 07:16 18.33356 111.72674 29959 ft 484 kts 237°
2026-04-30 07:17 18.29608 111.66785 29967 ft 484 kts 237°
2026-04-30 07:18 18.23981 111.57954 29958 ft 485 kts 237°
2026-04-30 07:18 18.20218 111.52055 29977 ft 485 kts 237°
2026-04-30 07:19 18.16457 111.46165 29975 ft 485 kts 237°
2026-04-30 07:19 18.12719 111.40316 29975 ft 485 kts 237°
2026-04-30 07:20 18.08951 111.34424 29953 ft 485 kts 237°
2026-04-30 07:20 18.05185 111.28543 29974 ft 485 kts 237°
2026-04-30 07:21 18.01418 111.22664 29971 ft 485 kts 237°
2026-04-30 07:21 17.97648 111.16787 29972 ft 485 kts 237°
2026-04-30 07:22 17.91987 111.07970 29967 ft 486 kts 237°
2026-04-30 07:22 17.88201 111.02080 29970 ft 487 kts 237°
2026-04-30 07:23 17.85111 110.97276 29964 ft 488 kts 237°
2026-04-30 07:23 17.80664 110.90371 29966 ft 488 kts 237°
2026-04-30 07:24 17.76880 110.84499 29964 ft 488 kts 237°
2026-04-30 07:24 17.73072 110.78596 29968 ft 489 kts 237°
2026-04-30 07:25 17.69260 110.72691 29967 ft 489 kts 237°
2026-04-30 07:25 17.66065 110.67747 29959 ft 489 kts 237°
2026-04-30 07:26 17.62244 110.61838 29968 ft 490 kts 237°
2026-04-30 07:26 17.58445 110.55969 29965 ft 490 kts 237°
2026-04-30 07:27 17.54619 110.50063 29964 ft 490 kts 237°
2026-04-30 07:27 17.50788 110.44153 29947 ft 490 kts 237°
2026-04-30 07:28 17.46964 110.38259 29962 ft 490 kts 237°
2026-04-30 07:28 17.43307 110.32245 29943 ft 488 kts 244°
2026-04-30 07:29 17.40859 110.25628 29952 ft 487 kts 255°
2026-04-30 07:29 17.39528 110.18684 29966 ft 487 kts 260°
2026-04-30 07:30 17.37792 110.08250 29945 ft 488 kts 260°
2026-04-30 07:31 17.36590 110.01254 29960 ft 488 kts 260°
2026-04-30 07:31 17.35386 109.94368 29962 ft 489 kts 260°
2026-04-30 07:32 17.34156 109.87372 29950 ft 489 kts 260°
2026-04-30 07:32 17.32926 109.80383 29966 ft 489 kts 260°
2026-04-30 07:33 17.31693 109.73389 29964 ft 489 kts 259°
2026-04-30 07:33 17.30458 109.66398 29954 ft 488 kts 259°
2026-04-30 07:34 17.29221 109.59404 29962 ft 488 kts 259°
2026-04-30 07:34 17.27992 109.52471 29968 ft 488 kts 259°
2026-04-30 07:35 17.26751 109.45486 29958 ft 488 kts 259°
2026-04-30 07:35 17.25510 109.38517 29957 ft 487 kts 259°
2026-04-30 07:36 17.24267 109.31555 29967 ft 487 kts 259°
2026-04-30 07:36 17.23022 109.24587 29973 ft 487 kts 259°
2026-04-30 07:37 17.21774 109.17623 29974 ft 487 kts 259°
2026-04-30 07:37 17.20524 109.10662 29965 ft 487 kts 259°
2026-04-30 07:38 17.19272 109.03703 29968 ft 487 kts 259°
2026-04-30 07:38 17.18039 108.96863 29977 ft 487 kts 259°
2026-04-30 07:39 17.16783 108.89905 29961 ft 487 kts 259°
2026-04-30 07:39 17.15525 108.82958 29972 ft 487 kts 259°
2026-04-30 07:40 17.14272 108.76045 29975 ft 487 kts 258°
2026-04-30 07:40 17.13005 108.69073 29975 ft 488 kts 258°
2026-04-30 07:41 17.11734 108.62097 29964 ft 489 kts 258°
2026-04-30 07:41 17.10458 108.55104 29971 ft 489 kts 258°
2026-04-30 07:42 17.09180 108.48111 29968 ft 489 kts 258°
2026-04-30 07:42 17.07900 108.41125 29977 ft 489 kts 258°
2026-04-30 07:43 17.06627 108.34188 29981 ft 489 kts 258°
2026-04-30 07:43 17.05335 108.27163 29976 ft 489 kts 258°
2026-04-30 07:44 17.04049 108.20184 29966 ft 489 kts 258°
2026-04-30 07:44 17.02769 108.13254 29974 ft 489 kts 258°
2026-04-30 07:45 17.01479 108.06280 29973 ft 489 kts 258°
2026-04-30 07:45 17.00206 107.99416 29986 ft 489 kts 258°
2026-04-30 07:46 16.98913 107.92454 29990 ft 489 kts 258°
2026-04-30 07:46 16.97617 107.85488 29979 ft 489 kts 258°
2026-04-30 07:47 16.96317 107.78519 29974 ft 489 kts 258°
2026-04-30 07:47 16.95016 107.71552 29994 ft 488 kts 258°
2026-04-30 07:48 16.93711 107.64578 30003 ft 489 kts 258°
2026-04-30 07:48 16.92402 107.57603 30001 ft 490 kts 258°
2026-04-30 07:49 16.91089 107.50613 29980 ft 491 kts 258°
2026-04-30 07:49 16.89772 107.43613 29999 ft 491 kts 258°
2026-04-30 07:50 16.88407 107.36628 30004 ft 491 kts 257°
2026-04-30 07:50 16.86988 107.29662 29989 ft 490 kts 257°
2026-04-30 07:51 16.85581 107.22761 29994 ft 488 kts 257°
2026-04-30 07:51 16.84174 107.15830 30007 ft 488 kts 257°
2026-04-30 07:52 16.82771 107.08904 30003 ft 487 kts 257°
2026-04-30 07:52 16.81367 107.01988 29997 ft 488 kts 258°
2026-04-30 07:53 16.79980 106.95166 30017 ft 489 kts 258°
2026-04-30 07:53 16.78560 106.88195 30017 ft 491 kts 257°
2026-04-30 07:54 16.77135 106.81215 30017 ft 493 kts 257°
2026-04-30 07:54 16.75704 106.74213 30018 ft 494 kts 257°
2026-04-30 07:55 16.74267 106.67201 30024 ft 493 kts 257°
2026-04-30 07:55 16.72837 106.60232 30010 ft 489 kts 257°
2026-04-30 07:56 16.71414 106.53313 29978 ft 486 kts 257°
2026-04-30 07:56 16.69999 106.46443 29996 ft 490 kts 257°
2026-04-30 07:57 16.68561 106.39473 30001 ft 494 kts 257°
2026-04-30 07:57 16.67112 106.32460 29997 ft 493 kts 257°
2026-04-30 07:58 16.65685 106.25568 29964 ft 482 kts 258°
2026-04-30 07:58 16.64266 106.18725 29972 ft 484 kts 257°
2026-04-30 07:59 16.62838 106.11849 29976 ft 485 kts 257°
2026-04-30 07:59 16.61405 106.04964 29965 ft 487 kts 257°
2026-04-30 08:00 16.59273 105.94752 29947 ft 480 kts 258°
2026-04-30 08:00 16.57870 105.88036 29961 ft 477 kts 258°
2026-04-30 08:01 16.56455 105.81271 29949 ft 479 kts 258°
2026-04-30 08:01 16.55029 105.74471 29930 ft 480 kts 258°
2026-04-30 08:02 16.52884 105.64268 29931 ft 480 kts 258°
2026-04-30 08:03 16.50062 105.50878 29946 ft 471 kts 258°
2026-04-30 08:04 16.48654 105.44212 29938 ft 472 kts 258°
2026-04-30 08:04 16.47248 105.37571 29921 ft 473 kts 258°
2026-04-30 08:05 16.45828 105.30870 29939 ft 474 kts 258°
2026-04-30 08:05 16.44400 105.24146 29930 ft 476 kts 258°
2026-04-30 08:06 16.42966 105.17405 29930 ft 477 kts 258°
2026-04-30 08:06 16.41530 105.10663 29940 ft 477 kts 258°
2026-04-30 08:07 16.40090 105.03915 29931 ft 477 kts 258°
2026-04-30 08:07 16.38671 104.97277 29936 ft 477 kts 258°
2026-04-30 08:08 16.37230 104.90544 29926 ft 476 kts 258°
2026-04-30 08:08 16.35797 104.83863 29921 ft 475 kts 258°
2026-04-30 08:09 16.34356 104.77156 29925 ft 474 kts 258°
2026-04-30 08:09 16.32915 104.70454 29925 ft 474 kts 258°
2026-04-30 08:10 16.31474 104.63765 29940 ft 474 kts 258°
2026-04-30 08:10 16.30027 104.57059 29944 ft 474 kts 258°
2026-04-30 08:11 16.28581 104.50364 29943 ft 474 kts 257°
2026-04-30 08:11 16.27588 104.43584 29936 ft 474 kts 267°
2026-04-30 08:12 16.27649 104.37880 29929 ft 475 kts 274°
2026-04-30 08:12 16.28602 104.31079 29930 ft 476 kts 278°
2026-04-30 08:13 16.29892 104.23172 29929 ft 476 kts 278°
2026-04-30 08:13 16.30796 104.17516 29926 ft 477 kts 278°
2026-04-30 08:14 16.31859 104.10706 29933 ft 477 kts 278°
2026-04-30 08:14 16.32910 104.03898 29916 ft 477 kts 278°
2026-04-30 08:15 16.33942 103.97191 29912 ft 476 kts 278°
2026-04-30 08:15 16.34988 103.90386 29925 ft 476 kts 278°
2026-04-30 08:16 16.36034 103.83573 29929 ft 476 kts 277°
2026-04-30 08:16 16.37078 103.76753 29933 ft 476 kts 277°
2026-04-30 08:17 16.38120 103.69939 29927 ft 476 kts 277°
2026-04-30 08:17 16.39159 103.63121 29929 ft 477 kts 277°
2026-04-30 08:18 16.40197 103.56302 29936 ft 477 kts 277°
2026-04-30 08:18 16.41234 103.49470 29926 ft 477 kts 277°
2026-04-30 08:19 16.42261 103.42687 29940 ft 478 kts 277°
2026-04-30 08:19 16.43296 103.35841 29925 ft 479 kts 277°
2026-04-30 08:20 16.44330 103.28983 29929 ft 479 kts 277°
2026-04-30 08:20 16.45362 103.22121 29942 ft 480 kts 277°
2026-04-30 08:21 16.46393 103.15256 29953 ft 480 kts 277°
2026-04-30 08:21 16.47421 103.08388 29949 ft 480 kts 277°
2026-04-30 08:22 16.48449 103.01508 29946 ft 481 kts 277°
2026-04-30 08:22 16.49460 102.94725 29944 ft 481 kts 277°
2026-04-30 08:23 16.50486 102.87830 29937 ft 482 kts 277°
2026-04-30 08:23 16.51510 102.80932 29931 ft 482 kts 277°
2026-04-30 08:24 16.52531 102.74033 29934 ft 482 kts 278°
2026-04-30 08:24 16.53551 102.67130 29942 ft 482 kts 278°
2026-04-30 08:25 16.54562 102.60268 29940 ft 482 kts 278°
2026-04-30 08:25 16.55578 102.53357 29935 ft 482 kts 278°
2026-04-30 08:26 16.56593 102.46437 29950 ft 482 kts 278°
2026-04-30 08:26 16.57604 102.39524 29953 ft 482 kts 278°
2026-04-30 08:27 16.58613 102.32614 29927 ft 482 kts 278°
2026-04-30 08:27 16.59620 102.25705 29931 ft 481 kts 278°
2026-04-30 08:28 16.60621 102.18810 29944 ft 481 kts 278°
2026-04-30 08:28 16.61621 102.11915 29923 ft 481 kts 278°
2026-04-30 08:29 16.62617 102.05024 29929 ft 480 kts 278°
2026-04-30 08:29 16.63571 101.98244 29929 ft 480 kts 276°
2026-04-30 08:30 16.64186 101.91328 29927 ft 479 kts 275°
2026-04-30 08:30 16.64726 101.84455 29941 ft 478 kts 275°
2026-04-30 08:31 16.65277 101.77546 29928 ft 478 kts 275°
2026-04-30 08:31 16.65842 101.70639 29915 ft 478 kts 275°
2026-04-30 08:32 16.66410 101.63732 29918 ft 478 kts 275°
2026-04-30 08:32 16.66975 101.56835 29914 ft 478 kts 275°
2026-04-30 08:33 16.67538 101.49925 29897 ft 477 kts 275°
2026-04-30 08:33 16.68098 101.43028 29888 ft 477 kts 275°
2026-04-30 08:34 16.68652 101.36132 29886 ft 477 kts 275°
2026-04-30 08:34 16.69209 101.29246 29864 ft 477 kts 275°
2026-04-30 08:35 16.69757 101.22394 29846 ft 476 kts 275°
2026-04-30 08:35 16.70306 101.15512 29861 ft 476 kts 275°
2026-04-30 08:36 16.70851 101.08645 29869 ft 475 kts 275°
2026-04-30 08:36 16.71394 101.01778 29859 ft 475 kts 275°
2026-04-30 08:37 16.71927 100.95012 29879 ft 475 kts 275°
2026-04-30 08:37 16.72465 100.88138 29861 ft 476 kts 275°
2026-04-30 08:38 16.73003 100.81258 29881 ft 476 kts 275°
2026-04-30 08:38 16.73538 100.74382 29886 ft 476 kts 275°
2026-04-30 08:39 16.74071 100.67491 29868 ft 476 kts 275°
2026-04-30 08:39 16.74601 100.60614 29872 ft 476 kts 275°
2026-04-30 08:40 16.75130 100.53733 29862 ft 476 kts 275°
2026-04-30 08:40 16.75654 100.46856 29860 ft 475 kts 275°
2026-04-30 08:41 16.76177 100.39983 29851 ft 474 kts 275°
2026-04-30 08:41 16.76693 100.33173 29855 ft 474 kts 275°
2026-04-30 08:42 16.77178 100.26316 29825 ft 474 kts 274°
2026-04-30 08:42 16.77437 100.19450 29834 ft 474 kts 272°
2026-04-30 08:43 16.77642 100.12581 29835 ft 473 kts 272°
2026-04-30 08:43 16.77871 100.05713 29837 ft 473 kts 272°
2026-04-30 08:44 16.78113 99.98972 29852 ft 472 kts 272°
2026-04-30 08:44 16.78361 99.92167 29859 ft 472 kts 272°
2026-04-30 08:45 16.78608 99.85313 29868 ft 472 kts 272°
2026-04-30 08:45 16.78853 99.78458 29857 ft 473 kts 271°
2026-04-30 08:46 16.79094 99.71585 29865 ft 474 kts 271°
2026-04-30 08:46 16.79333 99.64691 29871 ft 476 kts 271°
2026-04-30 08:47 16.79571 99.57785 29858 ft 477 kts 271°
2026-04-30 08:47 16.79808 99.50871 29871 ft 477 kts 271°
2026-04-30 08:48 16.80041 99.43997 29869 ft 477 kts 271°
2026-04-30 08:48 16.80273 99.37076 29871 ft 477 kts 271°
2026-04-30 08:49 16.80502 99.30160 29867 ft 476 kts 271°
2026-04-30 08:49 16.80728 99.23251 29872 ft 476 kts 271°
2026-04-30 08:50 16.80953 99.16347 29873 ft 476 kts 271°
2026-04-30 08:50 16.81175 99.09443 29887 ft 476 kts 271°
2026-04-30 08:51 16.81395 99.02530 29870 ft 477 kts 271°
2026-04-30 08:51 16.81609 98.95729 29869 ft 477 kts 271°
2026-04-30 08:52 16.81825 98.88808 29867 ft 478 kts 271°
2026-04-30 08:52 16.82038 98.81870 29862 ft 479 kts 271°
2026-04-30 08:53 16.82249 98.74965 29844 ft 479 kts 271°
2026-04-30 08:53 16.82459 98.68018 29834 ft 477 kts 270°
2026-04-30 08:54 16.82665 98.61113 29819 ft 475 kts 271°
2026-04-30 08:54 16.82869 98.54233 29833 ft 473 kts 271°
2026-04-30 08:55 16.83672 98.47412 29837 ft 474 kts 280°
2026-04-30 08:55 16.85425 98.40779 29844 ft 475 kts 284°
2026-04-30 08:56 16.87307 98.34174 29836 ft 475 kts 285°
2026-04-30 08:56 16.89164 98.27564 29834 ft 474 kts 284°
2026-04-30 08:57 16.91000 98.20947 29834 ft 474 kts 284°
2026-04-30 08:57 16.92818 98.14370 29825 ft 474 kts 284°
2026-04-30 08:58 16.94650 98.07752 29831 ft 474 kts 284°
2026-04-30 08:58 16.96479 98.01135 29818 ft 474 kts 284°
2026-04-30 08:59 16.98275 97.94626 29837 ft 473 kts 284°
2026-04-30 08:59 17.00096 97.88018 29812 ft 473 kts 284°
2026-04-30 09:00 17.01755 97.81381 29816 ft 471 kts 282°
2026-04-30 09:00 17.03279 97.74735 29818 ft 470 kts 281°
2026-04-30 09:01 17.04811 97.68095 29826 ft 470 kts 282°
2026-04-30 09:01 17.06101 97.62584 29822 ft 470 kts 282°
2026-04-30 09:02 17.08698 97.51545 29825 ft 470 kts 282°
2026-04-30 09:02 17.10005 97.45979 29819 ft 470 kts 282°
2026-04-30 09:03 17.11551 97.39391 29820 ft 470 kts 282°
2026-04-30 09:03 17.13101 97.32758 29820 ft 470 kts 282°
2026-04-30 09:04 17.14652 97.26119 29827 ft 470 kts 281°
2026-04-30 09:04 17.16199 97.19483 29827 ft 470 kts 281°
2026-04-30 09:05 17.17746 97.12841 29826 ft 470 kts 281°
2026-04-30 09:05 17.19292 97.06196 29827 ft 470 kts 281°
2026-04-30 09:06 17.20810 96.99654 29829 ft 470 kts 281°
2026-04-30 09:06 17.22349 96.93015 29824 ft 470 kts 281°
2026-04-30 09:07 17.23887 96.86370 29832 ft 470 kts 281°
2026-04-30 09:07 17.25422 96.79724 29831 ft 470 kts 281°
2026-04-30 09:08 17.26954 96.73082 29825 ft 470 kts 281°
2026-04-30 09:08 17.28484 96.66436 29815 ft 469 kts 281°
2026-04-30 09:09 17.30011 96.59800 29823 ft 469 kts 281°
2026-04-30 09:09 17.30911 96.53098 29824 ft 465 kts 269°
2026-04-30 09:10 17.30269 96.46424 29824 ft 464 kts 257°
2026-04-30 09:10 17.28450 96.39946 29814 ft 464 kts 253°
2026-04-30 09:11 17.26531 96.33488 29828 ft 465 kts 253°
2026-04-30 09:11 17.24634 96.27005 29826 ft 466 kts 254°
2026-04-30 09:12 17.22759 96.20504 29846 ft 467 kts 254°
2026-04-30 09:12 17.20888 96.13994 29858 ft 467 kts 254°
2026-04-30 09:13 17.19013 96.07483 29861 ft 467 kts 254°
2026-04-30 09:13 17.17138 96.00981 29859 ft 467 kts 254°
2026-04-30 09:14 17.15286 95.94564 29873 ft 470 kts 254°
2026-04-30 09:14 17.13398 95.88038 29865 ft 472 kts 254°
2026-04-30 09:15 17.11499 95.81486 29833 ft 469 kts 253°
2026-04-30 09:15 17.09618 95.75005 29841 ft 464 kts 253°
2026-04-30 09:16 17.07748 95.68565 29861 ft 462 kts 253°
2026-04-30 09:16 17.05875 95.62124 29854 ft 463 kts 253°
2026-04-30 09:17 17.03998 95.55677 29851 ft 464 kts 253°
2026-04-30 09:17 17.02110 95.49201 29850 ft 466 kts 253°
2026-04-30 09:18 17.00219 95.42720 29849 ft 467 kts 253°
2026-04-30 09:18 16.98319 95.36220 29848 ft 468 kts 253°
2026-04-30 09:19 16.96415 95.29713 29856 ft 468 kts 253°
2026-04-30 09:19 16.94508 95.23207 29847 ft 468 kts 253°
2026-04-30 09:20 16.92598 95.16698 29850 ft 468 kts 253°
2026-04-30 09:20 16.90705 95.10255 29849 ft 467 kts 253°
2026-04-30 09:21 16.88797 95.03768 29848 ft 467 kts 253°
2026-04-30 09:21 16.86916 94.97379 29844 ft 467 kts 253°
2026-04-30 09:22 16.85007 94.90905 29853 ft 466 kts 253°
2026-04-30 09:22 16.83100 94.84443 29850 ft 466 kts 253°
2026-04-30 09:23 16.82057 94.77829 29854 ft 465 kts 271°
2026-04-30 09:23 16.83162 94.71162 29849 ft 471 kts 288°
2026-04-30 09:24 16.85749 94.64913 29861 ft 473 kts 291°
2026-04-30 09:24 16.88435 94.58635 29863 ft 475 kts 291°
2026-04-30 09:25 16.91093 94.52302 29868 ft 476 kts 290°
2026-04-30 09:25 16.93719 94.45944 29859 ft 477 kts 290°
2026-04-30 09:26 16.96337 94.39571 29862 ft 477 kts 290°
2026-04-30 09:26 16.98950 94.33205 29861 ft 476 kts 290°
2026-04-30 09:27 17.01539 94.26896 29867 ft 475 kts 289°
2026-04-30 09:27 17.04141 94.20549 29860 ft 475 kts 289°
2026-04-30 09:28 17.06740 94.14204 29860 ft 475 kts 289°
2026-04-30 09:28 17.09337 94.07858 29862 ft 475 kts 289°
2026-04-30 09:29 17.11932 94.01510 29859 ft 475 kts 289°
2026-04-30 09:29 17.14485 93.95256 29868 ft 475 kts 289°
2026-04-30 09:30 17.17078 93.88900 29857 ft 475 kts 289°
2026-04-30 09:30 17.19672 93.82534 29865 ft 475 kts 289°
2026-04-30 09:31 17.22261 93.76173 29862 ft 475 kts 289°
2026-04-30 09:31 17.24847 93.69814 29860 ft 475 kts 289°
2026-04-30 09:32 17.27427 93.63462 29866 ft 474 kts 289°
2026-04-30 09:32 17.29986 93.57158 29861 ft 474 kts 289°
2026-04-30 09:33 17.32560 93.50807 29863 ft 473 kts 289°
2026-04-30 09:33 17.35128 93.44464 29865 ft 473 kts 289°
2026-04-30 09:34 17.37694 93.38120 29876 ft 473 kts 289°
2026-04-30 09:34 17.40258 93.31775 29870 ft 472 kts 289°
2026-04-30 09:35 17.42813 93.25445 29855 ft 471 kts 288°
2026-04-30 09:35 17.45346 93.19165 29867 ft 471 kts 288°
2026-04-30 09:36 17.47907 93.12805 29866 ft 471 kts 288°
2026-04-30 09:36 17.50434 93.06524 29864 ft 471 kts 288°
2026-04-30 09:37 17.52973 93.00206 29851 ft 471 kts 288°
2026-04-30 09:37 17.55471 92.93986 29867 ft 471 kts 288°
2026-04-30 09:38 17.58012 92.87650 29863 ft 471 kts 288°
2026-04-30 09:38 17.60545 92.81327 29869 ft 471 kts 288°
2026-04-30 09:39 17.63079 92.74995 29851 ft 471 kts 288°
2026-04-30 09:39 17.65612 92.68660 29851 ft 471 kts 288°
2026-04-30 09:40 17.68140 92.62328 29854 ft 471 kts 288°
2026-04-30 09:40 17.70669 92.55988 29857 ft 470 kts 288°
2026-04-30 09:41 17.73190 92.49663 29864 ft 470 kts 288°
2026-04-30 09:41 17.75708 92.43335 29851 ft 471 kts 288°
2026-04-30 09:42 17.78214 92.37032 29851 ft 471 kts 288°
2026-04-30 09:42 17.80734 92.30688 29852 ft 471 kts 288°
2026-04-30 09:43 17.83253 92.24337 29852 ft 472 kts 288°
2026-04-30 09:43 17.85774 92.17976 29850 ft 472 kts 288°
2026-04-30 09:44 17.88292 92.11616 29844 ft 472 kts 288°
2026-04-30 09:44 17.90810 92.05248 29844 ft 472 kts 288°
2026-04-30 09:45 17.93281 91.98991 29840 ft 472 kts 288°
2026-04-30 09:45 17.95761 91.92617 29836 ft 471 kts 288°
2026-04-30 09:46 17.98222 91.86239 29834 ft 471 kts 288°
2026-04-30 09:46 18.00683 91.79860 29834 ft 472 kts 288°
2026-04-30 09:47 18.03150 91.73469 29822 ft 472 kts 288°
2026-04-30 09:47 18.05614 91.67079 29813 ft 472 kts 288°
2026-04-30 09:48 18.08062 91.60725 29814 ft 472 kts 288°
2026-04-30 09:48 18.10527 91.54320 29817 ft 473 kts 289°
2026-04-30 09:49 18.12994 91.47903 29812 ft 474 kts 288°
2026-04-30 09:49 18.15464 91.41471 29804 ft 474 kts 288°
2026-04-30 09:50 18.17930 91.35042 29803 ft 474 kts 288°
2026-04-30 09:50 18.19976 91.29700 29802 ft 473 kts 288°
2026-04-30 09:51 18.22432 91.23283 29802 ft 473 kts 288°
2026-04-30 09:51 18.24887 91.16861 29802 ft 473 kts 288°
2026-04-30 09:52 18.27737 91.09396 29799 ft 473 kts 288°
2026-04-30 09:52 18.29790 91.04013 29800 ft 473 kts 288°
2026-04-30 09:53 18.32190 90.97711 29802 ft 473 kts 288°
2026-04-30 09:53 18.34636 90.91285 29802 ft 473 kts 288°
2026-04-30 09:54 18.37062 90.84901 29803 ft 473 kts 288°
2026-04-30 09:54 18.39502 90.78474 29803 ft 473 kts 288°
2026-04-30 09:55 18.41939 90.72047 29809 ft 472 kts 287°
2026-04-30 09:55 18.44369 90.65635 29810 ft 470 kts 287°
2026-04-30 09:56 18.46787 90.59245 29799 ft 468 kts 287°
2026-04-30 09:56 18.49178 90.52915 29800 ft 467 kts 287°
2026-04-30 09:57 18.51576 90.46562 29802 ft 467 kts 287°
2026-04-30 09:57 18.53973 90.40203 29803 ft 467 kts 287°
2026-04-30 09:58 18.56367 90.33844 29805 ft 467 kts 286°
2026-04-30 09:58 18.58760 90.27479 29799 ft 467 kts 286°
2026-04-30 09:59 18.63541 90.14746 29803 ft 467 kts 286°
2026-04-30 10:00 18.67100 90.05247 29806 ft 466 kts 286°
2026-04-30 10:01 18.70635 89.95794 29812 ft 467 kts 286°
2026-04-30 10:02 18.74205 89.86231 29803 ft 467 kts 286°
2026-04-30 10:02 18.76584 89.79848 29803 ft 468 kts 286°
2026-04-30 10:03 18.78966 89.73453 29803 ft 468 kts 286°
2026-04-30 10:03 18.81343 89.67062 29808 ft 468 kts 286°
2026-04-30 10:04 18.83718 89.60668 29808 ft 468 kts 286°
2026-04-30 10:04 18.86093 89.54267 29808 ft 468 kts 286°
2026-04-30 10:05 18.88449 89.47908 29808 ft 467 kts 286°
2026-04-30 10:05 18.90818 89.41508 29808 ft 467 kts 286°
2026-04-30 10:06 18.93182 89.35113 29805 ft 467 kts 286°
2026-04-30 10:06 18.95543 89.28719 29805 ft 467 kts 286°
2026-04-30 10:07 18.97901 89.22322 29804 ft 467 kts 287°
2026-04-30 10:07 19.00261 89.15915 29805 ft 469 kts 287°
2026-04-30 10:08 19.02629 89.09478 29804 ft 471 kts 287°
2026-04-30 10:08 19.05001 89.03022 29800 ft 472 kts 287°
2026-04-30 10:09 19.07338 88.96655 29802 ft 472 kts 287°
2026-04-30 10:09 19.09710 88.90184 29804 ft 472 kts 287°
2026-04-30 10:10 19.12081 88.83706 29807 ft 472 kts 287°
2026-04-30 10:10 19.14459 88.77199 29798 ft 475 kts 287°
2026-04-30 10:11 19.16842 88.70674 29800 ft 477 kts 288°
2026-04-30 10:11 19.19245 88.64120 29798 ft 479 kts 288°
2026-04-30 10:12 19.21721 88.57627 29797 ft 479 kts 288°
2026-04-30 10:12 19.24238 88.51090 29795 ft 479 kts 288°
2026-04-30 10:13 19.26738 88.44561 29783 ft 478 kts 289°
2026-04-30 10:13 19.29226 88.38029 29793 ft 478 kts 289°
2026-04-30 10:14 19.31713 88.31486 29794 ft 478 kts 289°
2026-04-30 10:14 19.35418 88.21722 29794 ft 479 kts 288°
2026-04-30 10:15 19.37900 88.15172 29793 ft 479 kts 288°
2026-04-30 10:15 19.40380 88.08621 29785 ft 479 kts 289°
2026-04-30 10:16 19.42852 88.02080 29795 ft 479 kts 289°
2026-04-30 10:17 19.46526 87.92344 29791 ft 479 kts 289°
2026-04-30 10:17 19.50231 87.82514 29790 ft 478 kts 289°
2026-04-30 10:18 19.52676 87.76013 29788 ft 478 kts 289°
2026-04-30 10:19 19.56363 87.66196 29789 ft 477 kts 289°
2026-04-30 10:19 19.58812 87.59663 29787 ft 477 kts 289°
2026-04-30 10:20 19.61258 87.53131 29782 ft 476 kts 289°
2026-04-30 10:20 19.64922 87.43332 29779 ft 476 kts 289°
2026-04-30 10:21 19.67362 87.36796 29782 ft 476 kts 289°
2026-04-30 10:21 19.69803 87.30250 29784 ft 476 kts 289°
2026-04-30 10:22 19.72239 87.23709 29779 ft 476 kts 289°
2026-04-30 10:22 19.74671 87.17168 29780 ft 476 kts 289°
2026-04-30 10:23 19.77084 87.10669 29775 ft 476 kts 289°
2026-04-30 10:23 19.79509 87.04126 29771 ft 477 kts 290°
2026-04-30 10:24 19.81905 86.97663 29773 ft 478 kts 290°
2026-04-30 10:24 19.84339 86.91084 29775 ft 479 kts 291°
2026-04-30 10:25 19.86773 86.84496 29768 ft 479 kts 291°
2026-04-30 10:25 19.89204 86.77905 29768 ft 479 kts 291°
2026-04-30 10:26 19.91636 86.71308 29776 ft 479 kts 291°
2026-04-30 10:26 19.94042 86.64751 29772 ft 479 kts 291°
2026-04-30 10:27 19.96455 86.58152 29768 ft 479 kts 291°
2026-04-30 10:27 19.98861 86.51564 29771 ft 477 kts 291°
2026-04-30 10:28 20.01257 86.44997 29763 ft 476 kts 291°
2026-04-30 10:28 20.03650 86.38433 29772 ft 476 kts 291°
2026-04-30 10:29 20.06039 86.31867 29768 ft 475 kts 291°
2026-04-30 10:29 20.08422 86.25309 29768 ft 475 kts 291°
2026-04-30 10:30 20.10807 86.18737 29781 ft 476 kts 291°
2026-04-30 10:30 20.13201 86.12153 29753 ft 478 kts 291°
2026-04-30 10:31 20.15602 86.05559 29749 ft 477 kts 290°
2026-04-30 10:31 20.17959 85.99075 29752 ft 477 kts 290°
2026-04-30 10:32 20.20348 85.92490 29749 ft 477 kts 290°
2026-04-30 10:32 20.22739 85.85894 29742 ft 477 kts 290°
2026-04-30 10:33 20.24661 85.79154 29754 ft 476 kts 282°
2026-04-30 10:33 20.25615 85.72225 29756 ft 476 kts 278°
2026-04-30 10:34 20.26460 85.65228 29754 ft 477 kts 278°
2026-04-30 10:34 20.27325 85.58223 29747 ft 477 kts 278°
2026-04-30 10:35 20.28204 85.51208 29748 ft 477 kts 278°
2026-04-30 10:35 20.29085 85.44197 29745 ft 478 kts 278°
2026-04-30 10:36 20.29962 85.37190 29742 ft 476 kts 278°
2026-04-30 10:36 20.30831 85.30222 29728 ft 473 kts 277°
2026-04-30 10:37 20.31687 85.23329 29729 ft 471 kts 277°
2026-04-30 10:37 20.32543 85.16415 29724 ft 470 kts 277°
2026-04-30 10:38 20.33395 85.09511 29722 ft 470 kts 277°
2026-04-30 10:38 20.34245 85.02604 29718 ft 471 kts 277°
2026-04-30 10:39 20.35080 84.95791 29717 ft 472 kts 277°
2026-04-30 10:39 20.35930 84.88826 29720 ft 474 kts 277°
2026-04-30 10:40 20.36774 84.81903 29718 ft 474 kts 277°
2026-04-30 10:40 20.37479 84.76094 29718 ft 475 kts 277°
2026-04-30 10:41 20.38322 84.69120 29719 ft 475 kts 277°
2026-04-30 10:41 20.39166 84.62131 29711 ft 475 kts 277°
2026-04-30 10:42 20.40006 84.55145 29710 ft 475 kts 277°
2026-04-30 10:42 20.40842 84.48166 29709 ft 474 kts 277°
2026-04-30 10:43 20.41675 84.41183 29722 ft 475 kts 277°
2026-04-30 10:43 20.42508 84.34191 29714 ft 475 kts 277°
2026-04-30 10:44 20.43333 84.27232 29706 ft 476 kts 276°
2026-04-30 10:44 20.44160 84.20223 29721 ft 477 kts 276°
2026-04-30 10:45 20.44988 84.13187 29716 ft 478 kts 276°
2026-04-30 10:45 20.45815 84.06141 29717 ft 479 kts 276°
2026-04-30 10:46 20.46627 83.99203 29710 ft 479 kts 276°
2026-04-30 10:46 20.47447 83.92154 29711 ft 478 kts 276°
2026-04-30 10:47 20.48265 83.85107 29716 ft 479 kts 276°
2026-04-30 10:47 20.49077 83.78083 29716 ft 480 kts 276°
2026-04-30 10:48 20.49894 83.70998 29681 ft 481 kts 276°
2026-04-30 10:48 20.50709 83.63902 29687 ft 482 kts 276°
2026-04-30 10:49 20.51522 83.56803 29686 ft 482 kts 276°
2026-04-30 10:49 20.52330 83.49705 29677 ft 482 kts 277°
2026-04-30 10:50 20.53136 83.42615 29684 ft 482 kts 277°
2026-04-30 10:50 20.53939 83.35515 29687 ft 481 kts 277°
2026-04-30 10:51 20.54733 83.28471 29688 ft 481 kts 276°
2026-04-30 10:51 20.55530 83.21379 29686 ft 481 kts 276°
2026-04-30 10:52 20.56323 83.14290 29693 ft 481 kts 277°
2026-04-30 10:52 20.57113 83.07206 29691 ft 481 kts 277°
2026-04-30 10:53 20.57900 83.00124 29697 ft 480 kts 277°
2026-04-30 10:53 20.58690 82.93164 29691 ft 480 kts 278°
2026-04-30 10:54 20.59639 82.86119 29686 ft 479 kts 279°
2026-04-30 10:54 20.60617 82.79130 29701 ft 479 kts 278°
2026-04-30 10:55 20.61581 82.72094 29692 ft 479 kts 278°
2026-04-30 10:55 20.62528 82.65055 29706 ft 479 kts 278°
2026-04-30 10:56 20.63469 82.58013 29689 ft 478 kts 278°
2026-04-30 10:56 20.64408 82.50974 29707 ft 478 kts 278°
2026-04-30 10:57 20.65343 82.43942 29704 ft 479 kts 279°
2026-04-30 10:57 20.66280 82.36880 29703 ft 480 kts 279°
2026-04-30 10:58 20.67216 82.29808 29713 ft 482 kts 279°
2026-04-30 10:58 20.68146 82.22758 29713 ft 482 kts 279°
2026-04-30 10:59 20.69078 82.15658 29710 ft 483 kts 279°
2026-04-30 10:59 20.70007 82.08564 29704 ft 483 kts 279°
2026-04-30 11:00 20.70933 82.01464 29713 ft 482 kts 279°
2026-04-30 11:00 20.71842 81.94486 29717 ft 482 kts 279°
2026-04-30 11:01 20.72779 81.87394 29708 ft 482 kts 280°
2026-04-30 11:01 20.73723 81.80306 29713 ft 482 kts 280°
2026-04-30 11:02 20.74662 81.73222 29712 ft 481 kts 280°
2026-04-30 11:02 20.75596 81.66131 29715 ft 481 kts 279°
2026-04-30 11:03 20.76520 81.59084 29715 ft 482 kts 280°
2026-04-30 11:04 20.77912 81.48440 29714 ft 482 kts 280°
2026-04-30 11:04 20.78837 81.41342 29718 ft 482 kts 280°
2026-04-30 11:05 20.79761 81.34239 29713 ft 483 kts 280°
2026-04-30 11:05 20.80697 81.27134 29698 ft 483 kts 281°
2026-04-30 11:06 20.81631 81.20027 29712 ft 482 kts 281°
2026-04-30 11:06 20.82561 81.12919 29710 ft 482 kts 281°
2026-04-30 11:07 20.83479 81.05875 29710 ft 482 kts 281°
2026-04-30 11:07 20.84391 80.98853 29714 ft 482 kts 281°
2026-04-30 11:08 20.85308 80.91767 29720 ft 482 kts 280°
2026-04-30 11:08 20.86206 80.84715 29710 ft 482 kts 280°
2026-04-30 11:09 20.87100 80.77613 29714 ft 482 kts 280°
2026-04-30 11:09 20.87996 80.70503 29713 ft 482 kts 280°
2026-04-30 11:10 20.88890 80.63396 29718 ft 482 kts 280°
2026-04-30 11:10 20.89789 80.56302 29710 ft 481 kts 280°
2026-04-30 11:11 20.90687 80.49206 29713 ft 480 kts 281°
2026-04-30 11:11 20.91581 80.42130 29710 ft 480 kts 281°
2026-04-30 11:12 20.92470 80.35060 29712 ft 479 kts 281°
2026-04-30 11:12 20.93349 80.28048 29707 ft 479 kts 281°
2026-04-30 11:13 20.94230 80.20991 29700 ft 479 kts 281°
2026-04-30 11:13 20.95107 80.13929 29700 ft 478 kts 281°
2026-04-30 11:14 20.95978 80.06895 29692 ft 476 kts 281°
2026-04-30 11:14 20.96839 79.99922 29687 ft 474 kts 281°
2026-04-30 11:15 20.97689 79.93019 29697 ft 473 kts 281°
2026-04-30 11:15 20.98547 79.86030 29695 ft 473 kts 281°
2026-04-30 11:16 20.99394 79.79104 29688 ft 473 kts 281°
2026-04-30 11:16 21.00245 79.72113 29698 ft 475 kts 282°
2026-04-30 11:17 21.01099 79.65091 29691 ft 477 kts 281°
2026-04-30 11:17 21.01953 79.58034 29694 ft 478 kts 281°
2026-04-30 11:18 21.02803 79.50976 29693 ft 479 kts 281°
2026-04-30 11:18 21.04075 79.40365 29697 ft 478 kts 282°
2026-04-30 11:19 21.04918 79.33315 29690 ft 477 kts 282°
2026-04-30 11:19 21.05751 79.26314 29699 ft 476 kts 282°
2026-04-30 11:20 21.06584 79.19294 29702 ft 475 kts 282°
2026-04-30 11:20 21.07415 79.12274 29710 ft 475 kts 282°
2026-04-30 11:21 21.08417 79.05318 29697 ft 471 kts 287°
2026-04-30 11:21 21.10308 78.98758 29698 ft 468 kts 293°
2026-04-30 11:22 21.12443 78.92164 29700 ft 470 kts 292°
2026-04-30 11:22 21.14547 78.85533 29702 ft 470 kts 292°
2026-04-30 11:23 21.16637 78.78889 29708 ft 470 kts 292°
2026-04-30 11:24 21.19763 78.68963 29726 ft 470 kts 292°
2026-04-30 11:24 21.21859 78.62324 29724 ft 470 kts 292°
2026-04-30 11:25 21.24996 78.52366 29733 ft 470 kts 292°
2026-04-30 11:26 21.29168 78.39075 29735 ft 470 kts 292°
2026-04-30 11:26 21.31247 78.32436 29737 ft 470 kts 292°
2026-04-30 11:27 21.33327 78.25789 29734 ft 470 kts 292°
2026-04-30 11:27 21.35403 78.19141 29741 ft 470 kts 292°
2026-04-30 11:28 21.38496 78.09213 29768 ft 470 kts 292°
2026-04-30 11:29 21.40564 78.02563 29748 ft 469 kts 292°
2026-04-30 11:29 21.43617 77.92729 29754 ft 467 kts 292°
2026-04-30 11:30 21.46683 77.82828 29745 ft 465 kts 292°
2026-04-30 11:31 21.48718 77.76247 29754 ft 464 kts 292°
2026-04-30 11:31 21.50405 77.70782 29769 ft 464 kts 292°
2026-04-30 11:32 21.52797 77.63157 29765 ft 463 kts 293°
2026-04-30 11:32 21.54909 77.56617 29756 ft 463 kts 294°
2026-04-30 11:33 21.57718 77.47861 29756 ft 463 kts 293°
2026-04-30 11:33 21.59808 77.41316 29774 ft 463 kts 293°
2026-04-30 11:34 21.61911 77.34822 29766 ft 463 kts 294°
2026-04-30 11:34 21.64125 77.28321 29769 ft 463 kts 294°
2026-04-30 11:35 21.66349 77.21820 29753 ft 464 kts 294°
2026-04-30 11:35 21.68566 77.15293 29773 ft 464 kts 294°
2026-04-30 11:36 21.70771 77.08766 29770 ft 465 kts 294°
2026-04-30 11:36 21.72978 77.02219 29762 ft 466 kts 294°
2026-04-30 11:37 21.75148 76.95768 29767 ft 466 kts 294°
2026-04-30 11:37 21.77355 76.89205 29771 ft 466 kts 294°
2026-04-30 11:38 21.79558 76.82646 29760 ft 466 kts 294°
2026-04-30 11:38 21.81758 76.76078 29767 ft 467 kts 294°
2026-04-30 11:39 21.83956 76.69513 29769 ft 467 kts 294°
2026-04-30 11:39 21.86156 76.62927 29769 ft 467 kts 294°
2026-04-30 11:40 21.88353 76.56346 29770 ft 467 kts 294°
2026-04-30 11:40 21.90531 76.49815 29778 ft 467 kts 294°
2026-04-30 11:41 21.92724 76.43246 29775 ft 465 kts 294°
2026-04-30 11:41 21.94909 76.36689 29776 ft 465 kts 294°
2026-04-30 11:42 21.97087 76.30139 29785 ft 464 kts 294°
2026-04-30 11:42 21.99265 76.23582 29782 ft 464 kts 294°
2026-04-30 11:43 22.01437 76.17032 29778 ft 464 kts 294°
2026-04-30 11:43 22.03607 76.10476 29775 ft 464 kts 293°
2026-04-30 11:44 22.05765 76.03947 29788 ft 465 kts 293°
2026-04-30 11:44 22.07888 75.97461 29786 ft 467 kts 292°
2026-04-30 11:45 22.09934 75.90802 29787 ft 467 kts 292°
2026-04-30 11:45 22.11947 75.84135 29793 ft 468 kts 292°
2026-04-30 11:46 22.13970 75.77468 29782 ft 468 kts 292°
2026-04-30 11:46 22.15986 75.70850 29798 ft 467 kts 292°
2026-04-30 11:47 22.18011 75.64203 29785 ft 466 kts 292°
2026-04-30 11:47 22.20026 75.57575 29792 ft 464 kts 292°
2026-04-30 11:48 22.22035 75.50959 29795 ft 464 kts 292°
2026-04-30 11:48 22.24040 75.44347 29789 ft 463 kts 292°
2026-04-30 11:49 22.26042 75.37731 29789 ft 464 kts 291°
2026-04-30 11:49 22.28046 75.31095 29787 ft 465 kts 291°
2026-04-30 11:50 22.30049 75.24457 29792 ft 466 kts 291°
2026-04-30 11:50 22.32056 75.17789 29784 ft 467 kts 291°
2026-04-30 11:51 22.34047 75.11165 29781 ft 467 kts 291°
2026-04-30 11:51 22.36051 75.04488 29773 ft 467 kts 291°
2026-04-30 11:52 22.38020 74.97916 29776 ft 467 kts 291°
2026-04-30 11:52 22.40017 74.91236 29792 ft 467 kts 291°
2026-04-30 11:53 22.42006 74.84574 29778 ft 465 kts 291°
2026-04-30 11:53 22.43990 74.77919 29777 ft 464 kts 291°
2026-04-30 11:54 22.45965 74.71286 29778 ft 463 kts 291°
2026-04-30 11:54 22.47921 74.64704 29776 ft 463 kts 291°
2026-04-30 11:55 22.49887 74.58075 29779 ft 463 kts 291°
2026-04-30 11:55 22.51851 74.51442 29781 ft 463 kts 291°
2026-04-30 11:56 22.53815 74.44801 29771 ft 464 kts 291°
2026-04-30 11:56 22.55778 74.38149 29776 ft 464 kts 291°
2026-04-30 11:57 22.57741 74.31489 29766 ft 465 kts 291°
2026-04-30 11:57 22.59701 74.24823 29772 ft 465 kts 291°
2026-04-30 11:58 22.61675 74.18154 29766 ft 465 kts 291°
2026-04-30 11:58 22.63672 74.11484 29772 ft 465 kts 291°
2026-04-30 11:59 22.65649 74.04826 29754 ft 464 kts 291°
2026-04-30 11:59 22.67584 73.98279 29750 ft 463 kts 291°
2026-04-30 12:00 22.69544 73.91643 29752 ft 462 kts 291°
2026-04-30 12:00 22.71489 73.85051 29750 ft 463 kts 291°
2026-04-30 12:01 22.73448 73.78400 29741 ft 463 kts 291°
2026-04-30 12:01 22.75402 73.71756 29741 ft 464 kts 291°
2026-04-30 12:02 22.77356 73.65095 29718 ft 464 kts 291°
2026-04-30 12:02 22.79311 73.58427 29740 ft 464 kts 290°
2026-04-30 12:03 22.82248 73.48397 29722 ft 465 kts 290°
2026-04-30 12:04 22.84190 73.41752 29744 ft 465 kts 290°
2026-04-30 12:04 22.86141 73.35059 29744 ft 465 kts 290°
2026-04-30 12:05 22.88083 73.28370 29709 ft 465 kts 290°
2026-04-30 12:05 22.90019 73.21684 29722 ft 464 kts 290°
2026-04-30 12:06 22.91948 73.15009 29721 ft 463 kts 290°
2026-04-30 12:06 22.93876 73.08331 29721 ft 463 kts 290°
2026-04-30 12:07 22.95788 73.01696 29719 ft 464 kts 290°
2026-04-30 12:07 22.97693 72.95077 29688 ft 468 kts 290°
2026-04-30 12:08 22.99629 72.88332 29709 ft 466 kts 290°
2026-04-30 12:08 23.01547 72.81640 29701 ft 465 kts 290°
2026-04-30 12:09 23.03463 72.74942 29701 ft 465 kts 290°
2026-04-30 12:09 23.05356 72.68220 29679 ft 466 kts 287°
2026-04-30 12:10 23.06183 72.61242 29689 ft 472 kts 276°
2026-04-30 12:10 23.05785 72.54073 29691 ft 479 kts 266°
2026-04-30 12:11 23.04740 72.46915 29704 ft 481 kts 265°
2026-04-30 12:11 23.03665 72.39725 29699 ft 482 kts 265°
2026-04-30 12:12 23.02625 72.32530 29707 ft 482 kts 265°
2026-04-30 12:12 23.01605 72.25337 29696 ft 482 kts 265°
2026-04-30 12:13 23.00586 72.18147 29707 ft 482 kts 265°
2026-04-30 12:13 22.99570 72.11005 29709 ft 482 kts 265°
2026-04-30 12:14 22.98539 72.03800 29704 ft 482 kts 265°
2026-04-30 12:14 22.97523 71.96716 29711 ft 482 kts 265°
2026-04-30 12:15 22.96488 71.89527 29704 ft 482 kts 265°
2026-04-30 12:15 22.95454 71.82374 29713 ft 483 kts 265°
2026-04-30 12:16 22.94404 71.75127 29720 ft 483 kts 265°
2026-04-30 12:16 22.93358 71.67928 29723 ft 484 kts 265°
2026-04-30 12:17 22.91785 71.57157 29721 ft 484 kts 265°
2026-04-30 12:17 22.90727 71.49935 29723 ft 484 kts 265°
2026-04-30 12:18 22.89667 71.42726 29735 ft 485 kts 264°
2026-04-30 12:18 22.88601 71.35501 29733 ft 485 kts 264°
2026-04-30 12:19 22.87531 71.28275 29736 ft 485 kts 264°
2026-04-30 12:19 22.86460 71.21059 29738 ft 485 kts 264°
2026-04-30 12:20 22.85386 71.13844 29740 ft 485 kts 264°
2026-04-30 12:20 22.84308 71.06635 29745 ft 485 kts 264°
2026-04-30 12:21 22.83245 70.99540 29757 ft 485 kts 264°
2026-04-30 12:21 22.82161 70.92323 29756 ft 484 kts 264°
2026-04-30 12:22 22.81159 70.85152 29757 ft 482 kts 268°
2026-04-30 12:22 22.81060 70.77926 29751 ft 478 kts 277°
2026-04-30 12:23 22.81564 70.70730 29760 ft 479 kts 277°
2026-04-30 12:23 22.81975 70.64740 29756 ft 480 kts 277°
2026-04-30 12:24 22.82521 70.56307 29759 ft 480 kts 277°
2026-04-30 12:24 22.82897 70.50298 29750 ft 481 kts 276°
2026-04-30 12:25 22.83346 70.43069 29766 ft 481 kts 276°
2026-04-30 12:25 22.83792 70.35833 29757 ft 480 kts 276°
2026-04-30 12:26 22.84235 70.28619 29756 ft 479 kts 276°
2026-04-30 12:26 22.84671 70.21454 29760 ft 479 kts 276°
2026-04-30 12:27 22.85107 70.14251 29749 ft 479 kts 276°
2026-04-30 12:27 22.85541 70.07032 29754 ft 480 kts 276°
2026-04-30 12:28 22.85967 69.99869 29755 ft 480 kts 276°
2026-04-30 12:28 22.86392 69.92686 29755 ft 481 kts 276°
2026-04-30 12:29 22.86817 69.85436 29752 ft 482 kts 276°
2026-04-30 12:29 22.87240 69.78178 29758 ft 482 kts 276°
2026-04-30 12:30 22.87657 69.70960 29763 ft 483 kts 276°
2026-04-30 12:30 22.88105 69.63702 29763 ft 483 kts 276°
2026-04-30 12:31 22.88584 69.56436 29762 ft 483 kts 276°
2026-04-30 12:31 22.89059 69.49179 29755 ft 483 kts 276°
2026-04-30 12:32 22.89524 69.41912 29764 ft 483 kts 276°
2026-04-30 12:32 22.89986 69.34632 29759 ft 483 kts 276°
2026-04-30 12:33 22.90442 69.27355 29762 ft 484 kts 276°
2026-04-30 12:33 22.90896 69.20077 29757 ft 484 kts 276°
2026-04-30 12:34 22.91348 69.12796 29760 ft 484 kts 276°
2026-04-30 12:34 22.91793 69.05563 29759 ft 484 kts 276°
2026-04-30 12:35 22.92231 68.98382 29756 ft 484 kts 276°
2026-04-30 12:35 22.92673 68.91095 29758 ft 484 kts 276°
2026-04-30 12:36 22.93111 68.83809 29753 ft 483 kts 276°
2026-04-30 12:36 22.93544 68.76540 29752 ft 482 kts 276°
2026-04-30 12:37 22.93974 68.69280 29757 ft 482 kts 275°
2026-04-30 12:37 22.94401 68.62023 29756 ft 482 kts 275°
2026-04-30 12:38 22.94823 68.54771 29750 ft 482 kts 275°
2026-04-30 12:38 22.95244 68.47502 29750 ft 482 kts 275°
2026-04-30 12:39 22.95661 68.40237 29751 ft 483 kts 275°
2026-04-30 12:39 22.95864 68.32946 29750 ft 484 kts 272°
2026-04-30 12:40 22.95843 68.25622 29740 ft 485 kts 271°
2026-04-30 12:40 22.95820 68.18308 29744 ft 485 kts 271°
2026-04-30 12:41 22.95816 68.10988 29745 ft 485 kts 272°
2026-04-30 12:41 22.95816 68.03678 29745 ft 485 kts 271°
2026-04-30 12:42 22.95812 67.96475 29744 ft 485 kts 271°
2026-04-30 12:42 22.95803 67.89210 29742 ft 485 kts 271°
2026-04-30 12:43 22.95804 67.81893 29746 ft 485 kts 272°
2026-04-30 12:43 22.95824 67.74584 29746 ft 485 kts 272°
2026-04-30 12:44 22.95843 67.67278 29742 ft 484 kts 272°
2026-04-30 12:44 22.95854 67.59958 29748 ft 484 kts 272°
2026-04-30 12:45 22.95861 67.52653 29738 ft 484 kts 271°
2026-04-30 12:45 22.95864 67.45344 29740 ft 484 kts 271°
2026-04-30 12:46 22.95864 67.38030 29741 ft 485 kts 271°
2026-04-30 12:46 22.95860 67.30721 29742 ft 485 kts 271°
2026-04-30 12:47 22.95853 67.23413 29742 ft 485 kts 271°
2026-04-30 12:47 22.95844 67.16097 29738 ft 485 kts 271°
2026-04-30 12:48 22.95830 67.08829 29742 ft 485 kts 271°
2026-04-30 12:48 22.95814 67.01517 29750 ft 484 kts 271°
2026-04-30 12:49 22.95799 66.94328 29742 ft 484 kts 271°
2026-04-30 12:49 22.95838 66.87042 29742 ft 483 kts 271°
2026-04-30 12:50 22.95893 66.79755 29746 ft 482 kts 271°
2026-04-30 12:50 22.95940 66.72487 29744 ft 482 kts 271°
2026-04-30 12:51 22.95977 66.65204 29738 ft 482 kts 271°
2026-04-30 12:51 22.96010 66.57928 29742 ft 483 kts 271°
2026-04-30 12:52 22.96039 66.50638 29743 ft 483 kts 271°
2026-04-30 12:52 22.96065 66.43343 29739 ft 484 kts 271°
2026-04-30 12:53 22.96087 66.36084 29740 ft 484 kts 271°
2026-04-30 12:53 22.96107 66.28774 29745 ft 484 kts 271°
2026-04-30 12:54 22.96123 66.21469 29742 ft 485 kts 271°
2026-04-30 12:54 22.96136 66.14158 29748 ft 484 kts 271°
2026-04-30 12:55 22.96145 66.06833 29745 ft 485 kts 271°
2026-04-30 12:55 22.96152 65.99636 29745 ft 485 kts 271°
2026-04-30 12:56 22.96154 65.92318 29741 ft 485 kts 270°
2026-04-30 12:56 22.96154 65.85000 29743 ft 485 kts 270°
2026-04-30 12:57 22.96150 65.77685 29741 ft 485 kts 270°
2026-04-30 12:57 22.96143 65.70374 29742 ft 485 kts 270°
2026-04-30 12:58 22.96132 65.63051 29737 ft 485 kts 270°
2026-04-30 12:58 22.96118 65.55738 29742 ft 485 kts 270°
2026-04-30 12:59 22.96101 65.48417 29741 ft 485 kts 270°
2026-04-30 12:59 22.96080 65.41131 29751 ft 485 kts 270°
2026-04-30 13:00 22.96057 65.33810 29748 ft 485 kts 270°
2026-04-30 13:00 22.96029 65.26491 29742 ft 485 kts 270°
2026-04-30 13:01 22.95998 65.19172 29755 ft 485 kts 270°
2026-04-30 13:01 22.95964 65.11850 29750 ft 485 kts 270°
2026-04-30 13:02 22.95927 65.04538 29737 ft 484 kts 270°
2026-04-30 13:02 22.95887 64.97389 29750 ft 484 kts 270°
2026-04-30 13:03 22.95844 64.90092 29744 ft 483 kts 270°
2026-04-30 13:03 22.95858 64.82797 29755 ft 483 kts 273°
2026-04-30 13:04 22.96558 64.75554 29747 ft 483 kts 277°
2026-04-30 13:04 22.97368 64.68327 29743 ft 483 kts 276°
2026-04-30 13:05 22.98154 64.61082 29746 ft 483 kts 276°
2026-04-30 13:06 22.99296 64.50206 29743 ft 484 kts 276°
2026-04-30 13:06 23.00046 64.42992 29747 ft 484 kts 276°
2026-04-30 13:07 23.00798 64.35740 29743 ft 484 kts 276°
2026-04-30 13:07 23.01549 64.28474 29747 ft 484 kts 276°
2026-04-30 13:08 23.02297 64.21207 29748 ft 484 kts 276°
2026-04-30 13:08 23.03041 64.13939 29747 ft 484 kts 276°
2026-04-30 13:09 23.03782 64.06674 29748 ft 484 kts 276°
2026-04-30 13:09 23.04507 63.99520 29748 ft 484 kts 276°
2026-04-30 13:10 23.05242 63.92251 29750 ft 485 kts 276°
2026-04-30 13:10 23.05976 63.84973 29754 ft 485 kts 276°
2026-04-30 13:11 23.06734 63.77702 29749 ft 485 kts 276°
2026-04-30 13:11 23.07495 63.70467 29752 ft 485 kts 276°
2026-04-30 13:12 23.08255 63.63186 29740 ft 485 kts 276°
2026-04-30 13:12 23.09009 63.55897 29747 ft 486 kts 276°
2026-04-30 13:13 23.10007 63.46192 29751 ft 486 kts 276°
2026-04-30 13:14 23.11125 63.35255 29748 ft 486 kts 275°
2026-04-30 13:14 23.12234 63.24322 29753 ft 485 kts 275°
2026-04-30 13:15 23.13337 63.13386 29748 ft 485 kts 275°
2026-04-30 13:16 23.14068 63.06089 29753 ft 486 kts 275°
2026-04-30 13:16 23.14784 62.98908 29757 ft 486 kts 275°
2026-04-30 13:17 23.15869 62.87965 29755 ft 485 kts 275°
2026-04-30 13:18 23.16941 62.77072 29752 ft 484 kts 275°
2026-04-30 13:18 23.18007 62.66163 29757 ft 484 kts 275°
2026-04-30 13:19 23.18714 62.58881 29758 ft 484 kts 275°
2026-04-30 13:19 23.19417 62.51609 29749 ft 484 kts 275°
2026-04-30 13:20 23.20117 62.44333 29753 ft 484 kts 275°
2026-04-30 13:20 23.20814 62.37054 29759 ft 485 kts 275°
2026-04-30 13:21 23.21509 62.29758 29756 ft 485 kts 275°
2026-04-30 13:22 23.22545 62.18822 29757 ft 485 kts 275°
2026-04-30 13:22 23.23574 62.07873 29755 ft 485 kts 275°
2026-04-30 13:23 23.24584 61.97045 29756 ft 485 kts 275°
2026-04-30 13:24 23.25927 61.82509 29758 ft 484 kts 274°
2026-04-30 13:25 23.27261 61.67932 29756 ft 484 kts 274°
2026-04-30 13:26 23.28908 61.49719 29756 ft 484 kts 274°
2026-04-30 13:28 23.30536 61.31492 29755 ft 484 kts 274°
2026-04-30 13:28 23.31503 61.20549 29757 ft 484 kts 274°
2026-04-30 13:29 23.33197 61.06050 29756 ft 485 kts 277°
2026-04-30 13:31 23.35508 60.87993 29758 ft 485 kts 276°
2026-04-30 13:32 23.37759 60.69810 29762 ft 485 kts 276°
2026-04-30 13:33 23.41551 60.55768 29764 ft 488 kts 290°
2026-04-30 13:34 23.45386 60.45481 29756 ft 488 kts 289°
2026-04-30 13:35 23.50418 60.31726 29765 ft 488 kts 289°
2026-04-30 13:36 23.55408 60.17990 29762 ft 487 kts 289°
2026-04-30 13:36 23.59128 60.07729 29762 ft 487 kts 289°
2026-04-30 13:37 23.62811 59.97545 29760 ft 487 kts 289°
2026-04-30 13:38 23.66530 59.87238 29764 ft 487 kts 289°
2026-04-30 13:39 23.71479 59.73482 29757 ft 486 kts 289°
2026-04-30 13:40 23.75180 59.63167 29756 ft 486 kts 289°
2026-04-30 13:40 23.77640 59.56296 29753 ft 486 kts 289°
2026-04-30 13:41 23.80086 59.49451 29755 ft 487 kts 289°
2026-04-30 13:41 23.82546 59.42559 29758 ft 487 kts 289°
2026-04-30 13:42 23.85008 59.35650 29768 ft 487 kts 289°
2026-04-30 13:42 23.88688 59.25298 29755 ft 487 kts 289°
2026-04-30 13:43 23.91133 59.18409 29755 ft 486 kts 289°
2026-04-30 13:43 23.93667 59.11557 29757 ft 487 kts 292°
2026-04-30 13:44 23.96539 59.04853 29758 ft 487 kts 293°
2026-04-30 13:44 23.99401 58.98264 29755 ft 487 kts 293°
2026-04-30 13:45 24.03694 58.88243 29757 ft 487 kts 292°
2026-04-30 13:46 24.06555 58.81523 29761 ft 487 kts 292°
2026-04-30 13:46 24.09414 58.74802 29756 ft 486 kts 292°
2026-04-30 13:47 24.12268 58.68086 29760 ft 486 kts 292°
2026-04-30 13:47 24.15115 58.61377 29759 ft 486 kts 292°
2026-04-30 13:48 24.17961 58.54659 29749 ft 486 kts 292°
2026-04-30 13:48 24.20781 58.47992 29761 ft 485 kts 292°
2026-04-30 13:49 24.23613 58.41283 29749 ft 485 kts 292°
2026-04-30 13:49 24.26445 58.34566 29749 ft 485 kts 291°
2026-04-30 13:50 24.29270 58.27856 29749 ft 485 kts 291°
2026-04-30 13:50 24.33499 58.17791 29754 ft 485 kts 291°
2026-04-30 13:51 24.36320 58.11064 29767 ft 486 kts 291°
2026-04-30 13:51 24.39147 58.04316 29765 ft 486 kts 291°
2026-04-30 13:52 24.41902 57.97728 29747 ft 485 kts 291°
2026-04-30 13:52 24.44708 57.91005 29761 ft 484 kts 291°
2026-04-30 13:53 24.47509 57.84287 29765 ft 484 kts 291°
2026-04-30 13:53 24.50306 57.77561 29759 ft 483 kts 291°
2026-04-30 13:54 24.52933 57.70774 29749 ft 483 kts 289°
2026-04-30 13:54 24.55483 57.63954 29762 ft 483 kts 289°
2026-04-30 13:55 24.58037 57.57183 29759 ft 483 kts 289°
2026-04-30 13:55 24.60622 57.50369 29755 ft 483 kts 289°
2026-04-30 13:56 24.63209 57.43543 29765 ft 483 kts 289°
2026-04-30 13:56 24.65789 57.36721 29762 ft 483 kts 289°
2026-04-30 13:57 24.68364 57.29894 29761 ft 483 kts 289°
2026-04-30 13:57 24.70928 57.23075 29768 ft 482 kts 289°
2026-04-30 13:58 24.74758 57.12865 29767 ft 480 kts 289°
2026-04-30 13:59 24.77299 57.06076 29771 ft 479 kts 289°
2026-04-30 13:59 24.79796 56.99398 29774 ft 479 kts 289°
2026-04-30 14:00 24.82328 56.92611 29767 ft 479 kts 289°
2026-04-30 14:00 24.85698 56.83565 29773 ft 480 kts 289°
2026-04-30 14:01 24.88651 56.75620 29757 ft 479 kts 288°
2026-04-30 14:01 24.90749 56.69969 29760 ft 479 kts 288°
2026-04-30 14:02 24.93267 56.63173 29762 ft 479 kts 288°
2026-04-30 14:02 24.95781 56.56378 29783 ft 479 kts 288°
2026-04-30 14:03 24.98040 56.49505 29763 ft 476 kts 285°
2026-04-30 14:03 25.00103 56.42594 29765 ft 476 kts 285°
2026-04-30 14:04 25.02184 56.35685 29771 ft 475 kts 285°
2026-04-30 14:04 25.04280 56.28777 29775 ft 474 kts 284°
2026-04-30 14:05 25.06331 56.21944 29797 ft 472 kts 284°
2026-04-30 14:05 25.08385 56.15070 29779 ft 473 kts 284°
2026-04-30 14:06 25.10644 56.04559 29791 ft 468 kts 274°
2026-04-30 14:07 25.11888 55.93985 29790 ft 468 kts 275°
2026-04-30 14:08 25.13201 55.83316 29810 ft 467 kts 275°
2026-04-30 14:08 25.14785 55.72717 29802 ft 467 kts 279°
2026-04-30 14:09 25.16238 55.65781 29802 ft 466 kts 279°
2026-04-30 14:10 25.18394 55.55328 29804 ft 465 kts 279°
2026-04-30 14:10 25.19810 55.48359 29802 ft 465 kts 279°
2026-04-30 14:11 25.21265 55.41393 29802 ft 467 kts 281°
2026-04-30 14:11 25.23219 55.34535 29808 ft 469 kts 284°
2026-04-30 14:12 25.25228 55.27687 29797 ft 469 kts 283°
2026-04-30 14:12 25.27212 55.20825 29795 ft 468 kts 283°
2026-04-30 14:13 25.29178 55.13976 29798 ft 467 kts 283°
2026-04-30 14:13 25.31084 55.07131 29800 ft 466 kts 282°
2026-04-30 14:14 25.32903 55.00300 29809 ft 465 kts 282°
2026-04-30 14:14 25.34703 54.93540 29812 ft 466 kts 282°
2026-04-30 14:15 25.36540 54.86673 29813 ft 466 kts 282°
2026-04-30 14:15 25.38366 54.79849 29818 ft 465 kts 282°
2026-04-30 14:16 25.40195 54.72997 29807 ft 464 kts 282°
2026-04-30 14:16 25.42015 54.66162 29813 ft 462 kts 282°
2026-04-30 14:17 25.43849 54.59347 29816 ft 462 kts 283°
2026-04-30 14:17 25.45844 54.52582 29817 ft 463 kts 284°
2026-04-30 14:18 25.47866 54.45807 29819 ft 463 kts 284°
2026-04-30 14:18 25.50855 54.35627 29829 ft 463 kts 283°
2026-04-30 14:19 25.53824 54.25452 29814 ft 462 kts 283°
2026-04-30 14:20 25.55813 54.18695 29821 ft 462 kts 284°
2026-04-30 14:20 25.58804 54.08589 29822 ft 462 kts 284°
2026-04-30 14:21 25.60768 54.01810 29819 ft 462 kts 283°
2026-04-30 14:22 25.63610 53.91734 29832 ft 462 kts 283°
2026-04-30 14:22 25.66486 53.81559 29825 ft 460 kts 283°
2026-04-30 14:23 25.70299 53.68034 29822 ft 459 kts 283°
2026-04-30 14:24 25.73128 53.57948 29825 ft 458 kts 283°
2026-04-30 14:25 25.76923 53.44438 29834 ft 458 kts 283°
2026-04-30 14:26 25.79781 53.34326 29827 ft 457 kts 283°
2026-04-30 14:27 25.82626 53.24215 29834 ft 457 kts 283°
2026-04-30 14:27 25.84268 53.17434 29832 ft 453 kts 277°
2026-04-30 14:28 25.85346 53.07108 29834 ft 451 kts 272°
2026-04-30 14:28 25.86002 53.00184 29839 ft 452 kts 272°
2026-04-30 14:29 25.87225 52.87556 29832 ft 452 kts 272°
2026-04-30 14:31 25.88997 52.69071 29837 ft 452 kts 272°
2026-04-30 14:31 25.90997 52.58791 29845 ft 458 kts 283°
2026-04-30 14:32 25.94873 52.49047 29865 ft 464 kts 291°
2026-04-30 14:33 25.97777 52.42648 29853 ft 463 kts 290°
2026-04-30 14:33 26.02049 52.33029 29835 ft 462 kts 290°
2026-04-30 14:34 26.04897 52.26627 29851 ft 462 kts 290°
2026-04-30 14:34 26.07745 52.20216 29847 ft 462 kts 290°
2026-04-30 14:35 26.12009 52.10594 29847 ft 462 kts 290°
2026-04-30 14:36 26.14849 52.04173 29843 ft 462 kts 290°
2026-04-30 14:36 26.17639 51.97868 29853 ft 463 kts 290°
2026-04-30 14:37 26.20514 51.91504 29849 ft 463 kts 290°
2026-04-30 14:37 26.23359 51.85073 29853 ft 463 kts 290°
2026-04-30 14:38 26.26206 51.78636 29854 ft 462 kts 290°
2026-04-30 14:38 26.27635 51.75435 29253 ft 463 kts 290°
2026-04-30 14:38 26.29070 51.72228 28603 ft 458 kts 290°
2026-04-30 14:38 26.30483 51.69067 27916 ft 453 kts 291°
2026-04-30 14:39 26.31879 51.65935 27243 ft 448 kts 291°
2026-04-30 14:39 26.33255 51.62841 26585 ft 443 kts 291°
2026-04-30 14:39 26.34617 51.59775 25937 ft 439 kts 291°
2026-04-30 14:40 26.37299 51.53725 24791 ft 429 kts 291°
2026-04-30 14:40 26.38460 51.50698 24373 ft 419 kts 287°
2026-04-30 14:40 26.39404 51.47688 23898 ft 413 kts 286°
2026-04-30 14:40 26.40343 51.44665 23294 ft 411 kts 286°
2026-04-30 14:41 26.41287 51.41660 22599 ft 410 kts 287°
2026-04-30 14:41 26.42235 51.38676 21983 ft 406 kts 287°
2026-04-30 14:41 26.43180 51.35720 21415 ft 403 kts 287°
2026-04-30 14:41 26.44129 51.32815 20838 ft 388 kts 287°
2026-04-30 14:42 26.45002 51.30117 20659 ft 352 kts 283°
2026-04-30 14:42 26.45341 51.27551 20414 ft 320 kts 268°
2026-04-30 14:42 26.45167 51.25170 20041 ft 299 kts 259°
2026-04-30 14:42 26.44699 51.22963 19437 ft 289 kts 251°
2026-04-30 14:43 26.43976 51.20891 18717 ft 285 kts 248°
2026-04-30 14:43 26.43210 51.18862 17930 ft 283 kts 248°
2026-04-30 14:43 26.42451 51.16871 17122 ft 280 kts 248°
2026-04-30 14:43 26.41696 51.14885 16374 ft 276 kts 248°
2026-04-30 14:44 26.40950 51.12908 15641 ft 271 kts 248°
2026-04-30 14:44 26.40234 51.11003 14917 ft 268 kts 248°
2026-04-30 14:44 26.39518 51.09091 14232 ft 264 kts 248°
2026-04-30 14:44 26.38814 51.07208 13542 ft 261 kts 248°
2026-04-30 14:45 26.38120 51.05348 12748 ft 259 kts 248°
2026-04-30 14:45 26.37428 51.03493 11949 ft 260 kts 248°
2026-04-30 14:45 26.36734 51.01633 11158 ft 260 kts 248°
2026-04-30 14:45 26.36060 50.99825 10442 ft 259 kts 248°
2026-04-30 14:46 26.35371 50.97982 9771 ft 257 kts 248°
2026-04-30 14:46 26.34685 50.96147 9021 ft 256 kts 248°
2026-04-30 14:46 26.34008 50.94334 8323 ft 253 kts 248°
2026-04-30 14:46 26.33548 50.93134 7767 ft 255 kts 244°
2026-04-30 14:47 26.31932 50.91225 6743 ft 261 kts 212°
2026-04-30 14:47 26.30236 50.90457 5997 ft 264 kts 206°
2026-04-30 14:47 26.28494 50.89737 5134 ft 270 kts 203°
2026-04-30 14:47 26.26762 50.89018 4753 ft 258 kts 202°
2026-04-30 14:48 26.25164 50.88105 4400 ft 264 kts 228°
2026-04-30 14:48 26.24038 50.86487 4122 ft 269 kts 239°
2026-04-30 14:48 26.22972 50.84771 3884 ft 268 kts 239°
2026-04-30 14:48 26.21905 50.83117 3610 ft 254 kts 237°
2026-04-30 14:49 26.20906 50.81584 3423 ft 236 kts 238°
2026-04-30 14:49 26.19960 50.80131 3126 ft 229 kts 238°
2026-04-30 14:49 26.19321 50.78564 2827 ft 220 kts 270°
2026-04-30 14:49 26.19542 50.76997 2602 ft 200 kts 297°
2026-04-30 14:50 26.20726 50.74414 2063 ft 173 kts 307°
2026-04-30 14:50 26.21335 50.73335 1828 ft 158 kts 310°
2026-04-30 14:51 26.22310 50.71645 1592 ft 153 kts 309°
2026-04-30 14:51 26.23088 50.70299 1562 ft 156 kts 309°
2026-04-30 14:51 26.24034 50.68501 1127 ft 163 kts 308°
2026-04-30 14:52 26.24593 50.67451 744 ft 156 kts 311°
2026-04-30 14:52 26.25849 50.65485 219 ft 159 kts 308°
2026-04-30 14:52 26.26435 50.64488 45 ft 144 kts 307°
2026-04-30 14:53 26.27255 50.63066 21 ft 67 kts 303°
2026-04-30 14:53 26.27415 50.62790 26 ft 16 kts 303°
2026-04-30 14:54 26.27377 50.62595 24 ft 16 kts 214°
2026-04-30 14:54 26.27197 50.62603 26 ft 16 kts 126°
2026-04-30 14:55 26.27159 50.62668 29 ft 4 kts 123°
2026-04-30 14:55 26.27145 50.62692 28 ft 4 kts 122°
2026-04-30 14:55 26.27117 50.62742 29 ft 4 kts 122°
2026-04-30 14:56 26.27068 50.62745 28 ft 5 kts 206°
2026-04-30 14:56 26.27016 50.62710 31 ft 1 kts 212°
2026-04-30 14:57 26.27010 50.62706 29 ft 0 kts 212°